GFSWCAN_925_thetae_000.txt.gz
Theta_e
301 301 302 302 302 302 302 302 302 303 302 303 302 303 302 304 304 304 304 305 307 310 309 308 309 310 309 309 312 313 317 321 329 331 329 324 324 325 332 335 337 343 342 340 337 335 336 335 336 342 335 333 332 332
303 302 302 302 302 302 302 302 301 302 302 302 303 303 303 304 304 304 305 305 306 305 308 308 308 308 308 309 307 305 310 318 322 323 327 328 333 330 330 340 336 343 341 346 344 342 335 333 332 331 330 330 331 331
303 302 302 301 301 301 301 301 301 301 302 303 303 302 304 304 303 304 305 304 307 305 306 305 308 312 311 311 310 309 309 312 315 313 317 327 333 331 338 336 338 337 338 341 338 336 338 335 331 330 330 331 329 330
301 301 301 301 302 301 301 301 301 301 302 303 302 303 303 304 303 304 304 304 306 305 307 308 311 311 312 311 308 309 308 310 311 312 314 321 328 325 331 333 337 337 336 341 340 338 333 331 329 328 329 329 329 328
301 301 301 301 301 301 301 300 301 300 301 302 302 303 303 304 302 302 301 302 305 308 309 307 308 311 311 310 312 312 309 310 312 312 312 315 322 322 321 328 333 331 336 339 339 335 332 330 328 326 324 325 323 323
301 300 300 301 302 301 301 300 299 300 302 301 301 302 301 303 301 303 308 308 305 305 305 309 309 309 310 311 310 310 311 310 311 309 311 312 316 320 324 324 322 329 329 329 333 330 329 327 324 321 321 321 320 319
301 301 301 301 302 302 301 301 301 300 302 300 301 301 301 302 301 304 307 308 306 305 307 312 312 310 311 310 311 310 310 310 309 308 311 310 312 316 321 321 318 323 319 322 327 320 318 318 318 318 321 322 320 320
302 302 301 301 301 301 302 301 301 301 300 300 301 301 302 301 300 301 304 305 305 305 304 311 313 311 310 309 312 311 311 310 310 309 309 312 311 310 318 317 317 318 319 319 318 317 317 317 317 317 317 318 317 317
302 302 301 301 300 301 300 300 300 300 300 301 301 301 302 303 304 308 308 306 306 306 308 312 313 314 308 309 311 312 313 315 311 310 310 310 313 322 315 318 319 318 318 317 317 316 316 316 316 316 316 316 315 314
301 301 301 300 301 300 301 300 301 300 300 301 301 304 304 306 307 306 305 306 306 306 305 309 309 310 307 310 310 314 312 314 315 314 311 322 323 320 318 316 316 316 316 316 318 318 316 316 316 317 316 315 314 314
302 301 301 302 301 301 301 300 300 300 301 301 303 306 306 307 305 304 306 309 310 311 308 307 307 308 310 313 315 313 314 314 314 317 316 325 327 323 320 319 319 319 318 317 317 317 317 317 316 316 316 316 315 315
302 302 302 302 301 301 301 301 301 302 303 303 303 303 306 306 305 308 307 309 311 311 309 308 307 310 312 311 314 314 314 314 315 314 320 329 327 322 321 321 320 318 319 319 319 319 318 318 318 317 315 316 319 320
302 302 302 302 301 301 301 301 301 303 304 302 304 305 306 303 300 308 310 310 310 309 308 308 309 309 309 309 314 314 316 314 313 318 329 327 323 322 321 320 320 319 319 320 320 321 320 321 321 321 319 321 322 322
302 301 301 301 301 301 301 301 301 302 303 305 306 305 306 306 309 308 311 313 313 311 310 311 312 312 311 311 314 316 315 314 318 325 326 322 320 319 318 318 319 319 319 320 320 320 322 322 321 321 321 321 323 321
301 301 302 302 301 301 301 301 302 303 304 306 307 306 309 308 308 311 311 311 310 308 309 310 311 312 312 313 313 313 316 321 324 326 323 321 318 318 318 319 318 316 317 319 320 320 320 320 320 319 319 318 320 320
302 301 301 301 302 302 301 302 303 304 306 305 306 308 309 310 311 310 308 310 308 308 307 308 313 313 316 314 315 316 320 323 322 320 317 318 319 318 317 316 317 317 316 317 317 319 319 319 318 318 319 321 320 320
301 301 301 301 301 301 301 303 305 305 306 307 307 307 310 310 310 309 309 308 307 308 311 312 312 312 312 312 316 319 320 319 316 316 315 316 317 317 316 316 317 317 316 316 317 318 318 318 319 320 315 319 320 321
300 300 301 301 302 302 303 304 306 306 306 305 308 308 308 308 309 310 308 308 308 310 311 314 312 313 312 317 319 317 316 315 314 315 314 314 314 315 317 316 317 317 318 318 317 317 318 316 314 315 317 319 319 320
301 302 302 302 303 304 305 305 305 305 306 307 307 307 308 308 307 309 307 308 308 308 309 310 313 314 314 313 314 313 312 313 314 314 314 314 316 316 316 317 318 317 316 317 317 316 316 315 316 315 316 318 318 318
301 301 302 304 304 305 307 302 307 305 308 306 306 307 307 306 305 305 306 308 306 307 308 312 313 313 313 312 310 311 311 312 313 314 313 313 316 317 316 316 315 316 317 317 316 314 313 314 315 317 317 317 317 316
304 304 304 304 306 307 306 306 306 306 306 306 306 307 308 306 306 308 309 308 306 307 308 309 309 310 311 312 314 313 312 313 312 313 313 315 316 317 316 317 316 315 313 313 312 312 313 312 313 312 313 314 315 317
304 304 305 306 306 304 304 306 305 306 304 304 305 306 308 309 309 307 306 308 309 307 308 309 308 310 309 309 311 315 316 317 317 316 317 317 316 315 314 316 316 315 315 316 315 310 310 312 313 313 312 313 312 312
304 303 304 304 304 302 303 304 309 307 308 308 308 309 307 310 308 304 309 309 307 306 309 309 309 310 310 313 316 316 316 317 315 315 317 317 319 318 318 317 317 316 314 314 312 310 310 311 312 311 311 311 311 312
302 303 304 304 304 304 305 306 306 307 308 308 307 306 307 309 306 308 309 308 308 308 311 312 314 315 314 315 315 315 315 316 316 317 318 317 315 316 312 306 305 305 306 307 306 307 307 308 308 309 311 311 311 311
303 304 303 305 302 304 307 308 308 308 308 308 306 306 307 308 310 312 315 314 314 315 315 315 314 314 315 314 314 316 317 318 317 316 314 314 314 310 308 304 305 305 304 304 304 304 305 306 306 306 306 306 307 308
304 305 306 307 306 307 308 310 310 311 311 312 311 313 309 311 317 316 315 313 314 313 313 314 314 315 316 316 315 316 314 314 311 308 308 305 305 304 302 301 300 303 303 302 302 302 304 304 303 303 304 304 304 304
315 315 309 307 312 311 315 317 315 315 316 315 315 317 316 318 318 316 313 313 315 316 316 316 316 317 314 315 313 312 309 308 307 307 307 305 304 305 305 302 301 302 302 301 301 302 303 302 302 302 302 303 305 306
315 320 319 317 319 317 316 316 316 315 315 314 314 316 317 317 318 314 313 315 315 315 314 314 313 311 309 309 308 308 307 307 307 307 307 306 304 302 301 301 300 300 300 300 300 302 301 301 301 300 302 305 304 304
319 315 316 314 315 316 315 313 313 311 311 312 314 315 315 314 313 314 315 314 312 312 310 309 309 308 308 307 307 307 306 306 305 304 304 302 300 301 300 300 300 299 299 299 301 301 301 300 300 299 299 300 302 302
317 316 318 318 317 316 316 312 312 311 311 313 313 313 313 313 314 313 313 313 313 311 309 308 308 307 306 306 305 306 305 305 305 303 300 300 300 301 300 299 299 300 301 301 301 301 301 300 299 299 299 300 299 299
318 318 320 319 318 318 317 314 314 313 312 314 313 314 314 313 314 314 312 312 312 310 308 307 306 305 305 305 304 304 301 303 302 300 300 300 300 299 298 297 298 299 300 300 300 300 299 298 297 298 299 298 298 298
319 319 320 321 321 318 319 319 315 317 317 316 316 317 316 316 315 311 312 312 310 308 307 307 306 305 304 304 303 302 302 300 300 300 300 299 299 299 298 298 298 298 298 298 297 296 295 295 296 296 296 297 297 296
320 320 319 322 321 320 318 318 319 320 318 318 318 318 319 319 318 313 309 308 307 307 306 304 303 302 302 301 301 301 300 299 299 299 298 299 299 299 299 298 297 296 296 294 294 293 293 293 294 293 293 293 294 294

GFSWCAN_925_thetae_003.txt.gz
Theta_e
303 302 303 302 302 302 302 301 301 301 301 302 301 302 302 303 303 304 302 302 304 309 307 307 307 308 308 307 308 309 313 319 323 331 331 330 327 330 335 335 336 337 340 344 339 338 339 332 334 337 332 328 330 331
304 304 303 303 302 302 302 301 301 300 301 301 301 302 301 302 302 303 302 303 304 305 305 306 307 307 307 307 307 307 308 316 318 323 324 326 333 328 329 341 336 340 340 342 338 335 330 331 330 329 328 329 329 330
302 302 301 302 301 301 302 301 300 301 301 301 301 302 302 303 303 303 302 302 304 303 304 302 306 308 308 307 306 307 308 310 315 312 317 325 333 328 334 334 336 337 335 336 335 331 333 330 326 326 326 326 326 326
302 302 302 300 300 301 302 302 301 300 300 301 302 303 303 303 303 303 303 303 303 305 307 305 308 308 309 309 308 308 306 308 310 313 315 322 329 323 328 330 332 335 337 336 334 333 329 324 325 326 323 323 323 323
302 303 302 300 300 301 301 301 301 300 300 301 301 303 303 303 303 302 302 301 301 305 307 305 306 309 310 310 309 308 308 308 311 313 315 319 320 320 319 327 330 325 337 336 335 332 327 325 322 321 321 320 320 320
301 302 302 300 300 301 302 301 301 300 299 301 302 302 301 301 302 301 307 306 305 306 306 308 306 308 308 308 308 308 307 308 310 309 312 312 316 322 324 327 324 321 329 329 331 328 325 323 322 322 321 320 319 318
302 303 301 301 301 302 302 302 301 301 300 301 301 301 301 301 302 302 305 306 306 304 306 311 310 308 309 308 307 307 306 308 308 308 310 309 312 316 320 324 318 321 323 324 324 322 321 321 320 317 317 317 315 314
303 303 302 301 301 301 302 302 301 301 301 300 301 301 301 301 301 301 301 304 303 303 304 309 310 308 309 307 309 307 308 308 308 309 308 311 311 315 320 316 316 317 318 318 317 318 317 316 315 315 314 314 314 314
302 303 302 301 301 301 301 300 300 301 300 300 300 301 300 302 302 306 307 306 305 305 308 309 312 313 306 306 307 310 310 313 309 308 311 318 318 320 318 315 316 316 316 317 315 316 316 316 316 316 316 315 315 314
302 301 301 301 301 300 301 301 301 300 300 301 300 304 303 305 306 307 305 304 304 305 304 307 307 310 306 309 310 313 310 313 313 312 317 324 325 318 316 315 316 316 316 315 316 317 316 316 315 315 315 314 314 314
302 301 301 302 301 301 301 300 300 300 301 302 302 305 305 305 305 304 308 310 308 310 307 308 305 306 306 312 314 312 313 311 315 317 324 327 327 321 318 318 316 316 316 316 316 316 315 316 316 316 314 313 315 317
302 302 302 302 301 301 301 300 301 302 303 303 302 303 305 304 303 307 305 308 310 311 308 309 307 305 309 309 313 313 314 312 314 313 324 328 325 321 320 319 317 316 318 318 318 318 318 318 318 316 316 316 317 318
302 302 302 301 301 301 301 301 302 302 302 302 303 303 304 300 299 308 309 309 309 309 307 308 309 307 309 308 312 313 316 316 314 324 328 325 321 321 319 319 317 316 318 318 318 319 320 319 320 319 318 319 319 319
301 301 301 301 301 301 301 301 301 302 303 305 303 303 305 305 309 309 312 313 311 311 310 309 311 311 310 311 312 315 314 316 324 325 327 322 320 318 318 318 315 316 317 318 318 319 319 318 317 318 318 317 316 317
301 301 301 301 301 301 301 301 301 302 303 302 304 308 310 309 308 311 312 310 310 307 309 309 311 311 311 313 313 313 317 324 325 326 324 319 317 316 316 315 315 315 314 315 315 316 317 317 316 315 317 318 318 318
301 302 301 301 301 301 301 302 303 304 304 304 306 309 308 309 310 309 309 310 309 307 306 308 311 311 314 312 315 320 322 323 321 318 316 314 315 315 315 314 314 314 314 313 314 315 315 315 315 316 317 316 318 319
301 301 301 301 301 301 302 302 304 305 304 306 308 308 309 308 309 309 308 309 306 308 312 311 312 314 309 312 319 319 320 318 316 315 312 312 313 313 313 314 314 314 314 314 314 315 314 315 315 313 312 315 318 318
301 301 301 302 302 302 303 303 304 305 306 307 309 309 307 307 307 307 307 305 308 308 309 313 310 314 317 320 319 316 315 311 311 312 312 311 311 312 313 312 313 314 313 314 314 315 314 313 312 311 312 315 317 318
301 301 301 302 304 303 303 304 303 307 307 305 305 305 305 305 304 305 304 305 304 305 306 308 312 313 317 315 312 310 309 311 312 311 311 312 312 313 314 314 314 314 313 313 313 314 314 313 312 313 314 314 314 316
302 303 303 304 305 304 304 301 305 304 306 305 304 305 306 304 302 302 305 305 303 305 308 311 311 310 311 309 308 309 309 309 310 311 311 310 312 315 314 314 314 314 313 313 313 312 312 312 313 314 314 315 315 315
304 304 304 305 305 306 303 304 303 303 303 304 303 304 305 304 306 306 305 303 304 304 307 308 310 309 308 309 310 310 309 309 310 310 311 311 314 315 314 314 315 314 311 312 310 311 310 309 310 312 312 313 314 314
304 304 304 305 304 302 302 304 302 302 302 302 303 304 306 307 306 304 302 306 306 306 305 306 306 306 307 307 308 310 312 314 315 314 315 315 314 315 315 314 313 311 309 307 308 307 307 308 309 310 309 309 310 310
304 303 304 303 303 300 300 303 307 304 306 306 306 307 305 309 306 301 306 304 305 303 305 307 309 310 309 313 315 315 315 316 314 313 314 315 315 310 306 303 302 302 301 302 303 304 304 305 306 307 308 308 308 308
303 303 303 304 303 303 303 305 303 306 306 307 305 307 308 308 307 309 310 309 308 308 311 313 314 315 314 315 314 313 314 314 314 314 313 314 309 302 301 301 302 302 302 301 302 303 304 303 304 304 304 304 304 304
305 307 304 305 303 305 308 309 308 308 309 309 307 308 308 308 311 313 315 314 312 313 313 314 314 313 314 314 313 313 313 313 313 309 305 312 307 303 301 302 302 302 301 301 301 301 302 302 302 302 302 302 302 303
305 304 306 307 306 307 308 310 309 310 310 312 310 311 307 312 316 316 314 314 312 311 312 312 312 312 312 311 311 308 308 310 305 302 303 304 304 302 299 299 298 300 300 299 300 300 301 301 301 301 303 305 306 306
310 311 308 303 306 307 311 312 310 311 313 313 311 315 315 317 317 315 312 311 313 315 315 314 314 314 311 307 307 306 306 306 305 304 303 303 304 303 302 300 299 300 299 299 299 300 300 300 300 300 303 304 304 303
311 313 316 311 310 311 315 315 316 315 315 312 314 316 316 316 316 312 310 313 312 312 314 313 309 307 306 306 305 305 306 305 306 305 303 302 302 301 300 300 299 298 299 299 300 300 300 299 299 299 298 302 303 301
313 314 314 314 314 312 311 311 310 309 308 310 313 314 314 312 311 311 311 309 309 308 307 306 305 305 305 305 305 304 303 304 303 302 302 299 297 300 300 299 298 299 300 300 300 300 300 299 298 298 298 298 300 301
313 312 315 316 314 315 312 308 310 308 309 310 310 310 310 310 312 311 310 308 307 305 305 304 303 304 302 302 302 303 302 302 300 299 297 297 297 299 298 297 297 298 300 299 299 299 298 298 298 298 298 298 298 298
313 315 317 315 314 314 313 313 311 309 309 310 310 312 311 310 311 309 308 306 306 305 304 303 303 302 302 301 301 300 298 299 299 299 298 298 298 298 298 298 297 298 298 297 296 295 295 295 295 295 295 296 296 295
317 318 318 319 317 315 316 317 314 315 314 315 316 317 318 317 315 308 305 305 304 303 302 301 301 300 300 300 299 299 298 297 296 297 297 297 298 298 298 297 297 296 295 294 293 292 292 293 293 292 292 292 293 292
317 318 319 319 318 318 316 315 316 319 320 319 318 318 319 314 311 311 312 310 303 302 300 300 299 299 298 297 296 296 295 295 296 296 296 296 296 295 295 294 293 291 291 290 289 289 289 289 290 289 289 289 288 289

GFSWCAN_925_thetae_006.txt.gz
Theta_e
302 303 303 303 303 303 303 303 302 302 301 301 301 302 302 302 301 303 303 302 303 305 304 306 306 307 307 307 309 309 311 319 322 328 329 328 326 329 333 332 335 336 342 343 337 337 338 330 333 333 332 328 330 331
303 303 303 303 302 302 302 302 302 302 301 301 301 301 301 301 301 302 303 302 303 303 304 304 304 305 306 307 307 307 307 311 320 321 323 325 331 328 331 340 333 339 339 339 335 334 330 329 327 327 328 329 329 328
301 302 302 302 302 301 301 301 302 302 301 301 301 302 301 301 301 303 303 302 302 304 304 303 304 305 305 306 306 306 307 311 314 312 316 322 331 328 333 334 336 337 331 335 335 331 329 325 325 323 325 325 324 325
301 301 302 303 304 302 300 301 301 302 301 300 301 301 301 301 302 302 304 302 303 303 306 304 305 305 307 307 306 306 306 306 307 312 315 319 325 323 328 331 333 332 333 333 331 329 329 324 325 325 323 322 322 321
300 300 301 301 303 301 300 301 302 301 300 300 301 300 302 302 302 303 303 303 302 303 306 305 304 306 308 307 305 305 304 305 308 310 315 318 319 319 320 328 331 324 332 332 331 327 327 323 323 325 322 321 321 320
300 302 302 303 302 300 301 302 301 301 301 300 301 302 301 301 302 301 304 304 302 302 307 306 303 305 308 306 305 303 304 307 309 308 310 315 313 321 328 331 323 323 328 326 325 321 322 320 320 319 317 316 316 316
301 303 303 302 301 301 302 302 302 301 301 300 301 301 301 301 302 301 304 303 304 303 306 307 307 306 308 307 306 306 304 307 307 306 310 313 312 320 323 325 321 321 323 324 323 322 320 319 318 316 316 316 315 314
302 302 303 302 301 301 301 302 302 301 301 300 300 301 301 301 301 301 302 304 301 302 303 306 308 308 307 307 308 305 306 305 306 308 308 312 317 322 324 320 319 320 320 319 320 319 317 317 317 317 315 316 316 315
303 302 302 301 301 301 301 300 300 301 300 300 300 300 301 302 300 304 308 305 304 303 306 309 313 313 305 305 306 309 307 309 306 313 319 319 321 324 321 318 319 317 317 317 318 318 318 318 317 316 315 314 315 316
302 301 301 300 301 300 301 301 300 300 300 301 300 303 303 304 305 306 306 302 302 302 302 306 306 309 306 309 309 311 308 310 311 312 318 324 325 320 318 317 317 317 316 316 318 318 317 317 317 316 315 314 315 317
301 302 302 301 301 301 301 301 301 301 301 303 303 305 304 305 304 303 307 308 307 309 306 307 306 307 307 312 313 311 310 308 316 318 323 327 326 321 318 318 316 316 317 315 315 315 315 316 317 316 317 317 316 317
302 302 302 301 301 301 301 301 302 303 303 302 302 303 304 303 302 306 305 306 309 312 309 309 307 305 308 306 311 312 313 310 314 315 323 328 324 319 318 318 317 316 317 318 317 318 318 318 317 317 317 318 317 318
301 301 301 301 301 301 301 301 301 302 302 302 301 300 301 300 306 310 313 314 311 310 310 308 307 309 309 307 311 313 315 314 316 325 326 325 321 320 318 316 316 316 317 317 319 319 317 317 317 317 317 316 316 316
301 301 301 300 301 301 301 301 301 301 302 302 304 307 308 307 312 312 312 312 311 311 310 308 310 311 309 311 312 316 313 319 322 326 324 322 320 318 316 315 315 315 315 315 316 316 316 316 316 315 315 316 316 316
301 301 301 301 301 301 301 301 301 301 302 303 305 308 308 309 310 311 310 309 309 309 309 311 310 310 312 314 313 316 320 323 325 326 323 320 317 316 315 315 314 314 314 313 313 314 314 314 314 314 316 315 318 317
301 301 300 301 301 301 302 302 303 303 303 305 307 311 310 310 310 310 309 310 308 307 307 308 309 311 311 313 319 321 322 321 323 320 317 314 314 314 314 314 314 313 313 312 312 313 313 312 313 313 313 315 317 317
301 301 301 301 302 303 302 302 303 304 305 307 309 308 308 308 308 308 308 307 305 307 311 311 313 314 310 317 320 319 321 318 316 315 312 311 312 312 311 312 312 312 312 312 312 313 313 313 312 311 311 313 316 318
301 301 301 302 303 303 303 304 303 305 308 308 309 308 308 305 305 306 306 305 306 308 309 312 310 316 318 319 319 316 312 311 309 310 311 311 311 311 312 311 312 312 311 311 311 312 312 312 310 310 311 312 313 315
301 302 303 303 304 304 302 303 302 304 305 304 304 304 303 304 302 302 303 305 303 304 306 309 312 316 315 312 311 310 309 310 311 310 309 310 311 312 314 313 313 313 313 312 311 310 311 312 311 311 312 313 312 313
304 304 303 304 305 304 302 300 304 303 304 304 301 303 303 303 302 303 304 305 302 304 308 311 311 310 310 309 307 309 309 309 309 311 310 311 312 314 314 313 312 313 312 312 310 310 309 309 308 309 310 310 312 312
303 303 304 304 305 303 301 301 301 301 301 302 300 301 303 302 304 304 303 302 304 303 310 309 309 308 307 307 308 308 308 308 309 311 312 313 314 314 313 313 311 310 309 307 306 305 305 305 307 308 309 309 309 309
303 304 303 304 303 300 300 302 300 300 301 301 301 301 303 305 305 302 300 304 305 305 304 306 305 305 306 306 306 308 310 312 313 313 313 312 313 314 310 306 303 301 300 301 302 302 303 304 304 305 306 306 307 307
304 303 303 303 301 298 299 301 303 302 304 304 302 304 303 307 305 301 304 303 304 302 304 306 308 310 309 312 313 314 314 315 314 313 313 313 310 304 300 300 300 300 300 300 301 301 302 302 302 302 303 303 303 303
303 303 302 301 300 304 303 305 304 305 305 307 307 307 307 307 307 310 313 312 310 309 312 313 314 314 314 314 312 311 312 313 312 309 311 309 300 300 301 301 301 300 300 300 300 300 301 301 301 301 302 302 303 303
302 302 301 301 299 304 307 308 309 309 310 309 307 307 309 308 312 314 315 314 312 311 312 312 311 311 313 312 310 308 311 312 308 302 307 306 302 300 300 300 301 300 300 299 298 299 300 300 300 301 303 305 305 305
306 305 304 307 303 305 305 310 310 308 310 311 310 309 307 312 317 317 314 313 313 312 312 311 311 310 306 306 305 303 303 304 303 302 302 305 302 301 299 299 298 299 299 299 298 298 299 300 299 300 304 304 303 303
310 313 308 301 304 305 308 309 309 309 312 314 311 312 313 316 317 315 311 310 310 311 313 313 309 306 304 303 304 304 305 305 304 303 302 302 302 302 300 299 298 298 298 299 299 299 299 299 298 299 299 303 303 302
311 310 314 310 308 308 312 313 315 315 314 312 313 315 316 315 314 311 309 310 310 307 305 305 305 304 304 304 303 303 303 303 304 303 302 302 301 300 300 299 298 297 298 299 299 299 299 298 297 297 297 297 298 301
312 312 312 312 311 312 313 311 309 308 307 310 312 313 313 311 308 307 307 305 305 305 303 303 303 303 303 302 301 300 300 299 299 299 299 298 297 298 298 297 298 298 298 299 299 298 297 297 297 297 297 297 297 298
313 310 313 314 314 315 312 308 308 307 307 309 308 308 307 306 305 304 304 304 303 301 301 301 300 300 299 299 299 299 298 297 297 296 296 296 295 296 297 297 297 297 297 297 296 296 295 294 294 293 293 294 295 295
313 313 315 315 314 311 313 313 311 309 309 311 311 312 311 309 308 310 307 303 302 300 300 299 298 297 297 296 296 296 295 295 296 296 296 296 296 297 296 295 295 295 294 293 292 292 292 292 292 292 291 291 291 291
315 317 318 317 317 314 313 313 311 314 315 317 318 315 314 313 311 310 309 309 305 300 298 297 296 294 294 294 294 294 294 293 294 295 295 295 294 294 294 293 291 291 290 289 289 288 288 289 290 288 288 288 288 288
314 315 316 316 316 317 315 314 316 317 318 318 316 316 315 312 311 310 310 302 298 297 297 296 294 294 293 292 292 292 292 291 292 292 291 291 290 290 289 289 288 288 287 287 287 287 287 287 287 287 287 287 287 287

GFSWCAN_925_thetae_009.txt.gz
Theta_e
301 302 302 302 302 303 303 303 303 302 303 303 303 303 302 301 302 303 302 302 303 304 303 302 303 305 308 309 310 308 310 316 324 334 335 332 331 333 336 337 338 339 342 345 344 345 341 331 335 340 339 336 337 338
301 301 302 302 303 303 303 303 301 301 302 302 302 302 301 301 301 301 302 303 303 304 303 302 303 303 305 305 307 308 309 309 315 323 328 330 338 334 339 338 334 341 339 344 341 341 332 328 331 332 336 336 337 339
301 301 301 302 302 303 303 302 301 301 301 302 302 301 301 302 301 302 302 302 302 303 304 304 304 303 303 304 304 307 307 310 317 314 320 326 336 334 342 342 335 338 334 337 338 336 330 329 327 327 328 330 332 335
301 301 301 302 302 302 303 302 300 302 302 301 300 301 301 301 301 302 302 303 302 303 305 304 304 305 306 305 305 305 307 308 309 315 321 323 331 327 335 337 341 332 333 336 334 330 329 327 327 327 327 325 326 326
301 301 302 302 302 302 302 300 302 302 301 300 300 301 300 302 302 302 303 303 303 302 305 304 304 306 306 306 306 306 307 307 309 316 318 322 322 324 328 334 331 326 331 336 334 331 332 330 325 322 322 322 324 324
301 302 302 303 302 301 301 302 302 302 301 301 300 301 301 302 301 302 303 303 302 303 303 308 306 307 308 306 307 308 308 307 308 315 317 316 317 325 336 333 323 325 326 329 328 326 324 321 320 321 321 321 320 321
301 302 302 302 301 301 302 302 302 301 301 301 301 300 301 301 301 303 302 301 302 302 305 309 309 309 309 308 308 308 307 310 312 314 313 317 319 326 327 327 322 324 324 324 323 323 322 320 320 318 319 319 318 318
302 302 302 301 300 301 302 302 301 301 301 300 299 300 301 300 301 302 303 302 302 301 304 308 310 312 309 312 313 310 311 311 313 313 316 321 323 326 326 322 321 321 321 321 321 320 320 320 319 318 318 319 321 320
301 301 301 300 301 300 300 300 300 301 300 300 300 300 301 302 302 303 306 305 303 303 307 310 313 317 311 310 310 313 312 314 311 323 324 323 325 326 323 321 321 320 319 321 320 320 320 321 320 320 320 321 321 321
302 301 301 301 301 301 301 300 300 300 300 301 301 303 305 304 304 305 307 305 305 306 306 308 308 312 310 314 314 315 314 316 325 323 323 325 324 323 321 320 320 319 318 318 321 322 322 322 321 322 321 321 322 322
302 302 301 301 301 300 301 301 302 302 302 303 304 306 304 304 305 307 309 310 310 312 310 310 310 312 312 316 317 315 315 315 325 324 325 327 326 323 321 321 320 320 320 320 320 320 321 321 321 321 321 322 323 323
301 301 301 301 301 301 301 301 301 302 302 303 303 302 303 306 307 308 310 309 311 313 313 313 312 311 312 310 315 316 317 316 323 322 326 326 324 322 321 320 320 319 321 322 321 320 319 319 319 320 320 321 321 321
301 301 300 300 301 301 301 301 301 301 302 303 303 304 305 306 310 312 317 315 315 314 313 313 314 313 316 311 315 318 319 322 321 326 325 325 323 321 320 319 319 319 319 319 319 318 318 318 318 318 320 320 320 320
301 301 301 301 301 301 301 301 301 302 302 305 306 309 310 311 311 313 313 314 313 314 313 311 313 315 315 316 317 319 319 321 324 325 322 323 321 320 319 319 319 318 318 317 318 318 318 317 317 317 318 319 321 321
301 301 301 301 302 302 303 302 302 303 303 306 304 307 307 309 311 312 312 312 312 312 312 314 314 315 316 318 319 318 322 323 325 324 321 322 320 320 320 319 319 319 318 318 318 318 317 317 318 317 317 319 320 321
301 301 301 302 303 303 303 303 304 304 304 306 309 311 310 311 312 311 311 312 310 310 313 313 314 315 314 320 321 321 321 320 323 322 320 319 319 319 319 318 318 318 318 318 317 317 317 318 317 317 316 318 319 321
301 301 302 303 304 304 303 303 304 306 308 310 311 310 310 310 311 311 310 310 309 312 315 315 317 316 315 319 321 321 318 318 318 319 318 317 319 318 318 318 318 317 317 316 316 317 317 316 316 317 319 317 316 317
301 303 303 303 305 304 304 304 306 308 309 309 310 310 309 310 310 310 308 309 309 312 314 316 315 318 319 320 318 316 316 316 316 316 318 318 317 317 317 317 317 317 317 317 316 316 317 318 318 317 317 316 316 317
302 303 303 304 305 304 305 305 304 308 308 307 308 307 308 308 307 307 308 308 307 307 311 314 316 316 316 316 316 316 316 317 317 316 314 314 315 317 317 317 317 317 315 315 315 315 314 315 315 314 315 316 316 316
302 303 303 304 305 305 306 307 304 307 309 308 306 307 307 309 308 308 308 308 307 312 315 315 315 315 315 314 313 314 314 313 315 317 316 317 316 316 317 316 316 315 314 313 311 308 311 312 311 311 311 312 313 313
303 303 304 304 304 303 306 306 307 306 307 309 306 308 309 308 309 308 309 307 312 311 314 314 314 313 311 311 311 311 313 313 316 317 318 317 315 315 312 309 307 306 306 306 307 307 307 307 307 308 310 310 310 311
303 304 303 303 303 303 306 303 306 305 306 307 308 308 310 310 310 310 306 311 312 312 311 312 312 312 314 315 314 312 312 313 315 315 314 314 316 311 308 305 305 305 304 304 304 304 304 304 304 305 305 305 306 306
304 303 303 303 304 303 304 303 307 307 309 309 308 309 309 311 311 310 312 310 309 307 309 310 311 313 314 314 316 316 315 316 317 317 316 316 312 304 303 303 303 304 304 302 302 302 302 303 303 303 304 304 305 305
304 303 305 304 305 307 306 308 307 308 308 309 308 308 309 309 310 314 315 315 316 313 315 316 316 319 318 315 315 313 312 314 312 311 314 309 305 304 304 303 303 302 301 301 301 301 301 302 302 303 303 304 305 307
304 304 305 304 303 307 310 310 310 311 313 312 312 314 313 311 317 318 318 319 317 317 317 315 315 315 314 310 308 307 305 305 306 308 309 307 305 304 304 303 302 301 300 300 300 300 301 302 302 302 302 304 305 304
309 308 305 310 310 310 312 314 314 313 312 314 314 313 311 315 318 318 319 318 318 316 315 314 310 309 307 306 307 306 305 304 305 306 305 303 304 304 304 304 303 302 299 299 300 300 301 301 301 301 301 301 302 301
313 316 312 306 308 309 312 312 313 313 316 317 316 317 317 318 317 318 317 313 314 311 309 306 306 305 305 304 303 303 303 303 303 303 302 302 302 301 301 301 301 299 298 298 299 300 301 301 301 300 300 300 300 300
312 312 316 316 311 310 315 317 317 318 316 315 315 317 317 317 315 311 309 305 304 304 303 302 302 302 302 302 300 300 300 300 302 302 301 301 299 299 298 298 298 298 297 298 299 300 299 299 299 299 299 300 300 300
313 314 313 317 314 315 316 316 313 312 313 315 316 315 314 308 305 305 304 303 303 303 302 301 301 301 301 301 299 298 298 298 299 300 300 300 300 299 297 298 298 298 298 298 297 296 295 295 295 295 296 296 296 297
318 314 317 317 317 318 318 313 313 311 311 311 308 308 310 310 309 306 304 302 301 301 300 299 299 299 299 299 299 299 297 296 296 297 298 298 297 297 297 296 296 296 296 295 295 295 293 293 293 293 292 292 292 292
318 318 319 318 319 317 317 317 313 313 312 311 311 312 312 310 309 308 308 306 305 303 300 299 297 295 296 295 295 295 296 294 295 295 295 295 294 294 293 293 292 292 292 291 291 291 290 291 291 290 290 290 289 289
319 320 321 321 321 320 318 318 317 316 316 311 312 312 312 312 311 307 308 301 302 300 297 296 295 294 293 293 293 293 292 292 291 290 290 290 290 290 290 290 290 290 289 289 289 289 289 288 288 288 288 289 288 288
318 320 320 320 321 320 319 319 320 318 316 315 315 315 313 312 312 311 300 296 297 297 297 295 293 292 292 291 291 291 290 290 288 288 288 287 287 287 288 288 288 288 288 288 288 288 288 288 288 288 288 288 288 288

GFSWCAN_925_thetae_012.txt.gz
Theta_e
301 301 302 302 302 302 302 303 303 303 303 302 303 304 304 303 303 302 302 302 303 304 304 305 306 305 305 307 312 311 310 315 319 330 330 327 328 328 329 334 340 341 340 337 337 344 343 334 337 344 344 344 342 342
301 301 302 302 302 302 303 303 303 303 301 302 303 303 303 303 301 302 303 303 303 304 304 304 305 305 305 305 306 307 310 311 312 323 329 333 337 335 331 331 336 338 335 338 338 339 336 334 333 333 338 343 343 343
301 301 302 302 302 303 302 302 303 301 301 302 302 302 302 301 302 302 302 303 302 304 304 306 307 306 305 304 305 309 309 309 314 313 317 326 335 335 341 337 335 337 337 339 341 339 335 333 332 332 335 339 340 341
301 302 302 302 303 302 303 303 301 301 302 301 301 301 301 302 301 302 302 303 303 304 307 306 306 307 306 306 305 305 308 309 310 313 319 323 332 330 338 341 344 337 338 339 339 335 332 331 331 330 330 332 333 333
301 301 302 303 302 301 301 301 302 302 301 301 301 300 301 301 302 302 302 303 303 304 306 306 305 309 308 306 308 307 307 307 311 316 319 323 323 327 332 337 332 328 337 339 338 333 336 331 326 324 327 328 328 329
301 302 302 302 301 301 302 302 302 302 301 301 300 301 301 301 302 303 304 303 303 304 305 307 309 310 311 310 309 309 310 310 310 317 318 317 318 326 338 333 324 328 331 332 335 328 326 324 323 323 323 323 324 325
302 301 301 301 301 302 302 302 302 301 301 301 301 300 301 301 303 304 305 303 302 303 303 309 313 313 312 311 312 312 311 312 311 317 316 316 319 328 327 330 325 326 327 326 324 324 324 324 323 320 321 321 321 322
301 300 300 301 301 301 300 300 300 301 301 300 300 300 300 300 301 303 303 302 302 303 304 310 313 315 312 314 314 312 312 314 314 318 318 320 327 325 327 324 324 323 324 323 323 322 322 320 322 321 322 322 323 323
301 301 301 301 301 301 301 300 300 301 300 300 301 300 303 304 304 306 305 305 303 303 308 310 314 317 313 314 315 313 313 316 316 318 326 326 325 327 324 323 323 323 322 321 321 321 322 322 322 322 323 323 323 323
302 301 301 301 301 301 302 302 302 302 302 303 304 306 307 307 305 306 307 308 307 308 308 311 311 315 314 317 316 316 315 318 324 326 326 323 324 322 322 322 321 320 320 320 320 321 320 322 322 322 323 323 324 323
301 301 301 301 301 301 301 302 302 303 304 305 306 308 307 306 308 309 311 311 311 313 313 313 315 316 314 319 319 318 318 321 322 326 326 325 323 322 322 323 322 322 321 321 321 322 323 322 322 323 323 323 324 324
301 301 301 301 301 301 301 301 301 304 304 304 303 304 306 310 311 311 314 313 314 315 315 316 316 314 314 314 319 319 319 320 323 324 326 324 321 321 321 321 322 323 322 323 322 321 321 321 320 321 322 322 323 323
301 301 301 301 301 302 302 302 302 302 304 306 307 309 310 312 313 315 316 316 317 316 316 317 317 315 319 317 319 320 321 325 323 326 327 325 323 322 321 320 320 321 320 319 319 318 318 319 319 320 321 322 322 322
301 301 301 302 302 304 303 303 303 303 306 308 308 308 307 313 314 315 315 316 316 316 317 317 317 318 318 319 319 321 322 322 325 324 324 323 322 322 321 320 319 319 319 318 318 318 318 319 319 319 321 322 322 324
301 301 301 303 303 304 303 303 304 306 307 307 306 308 311 310 312 313 314 314 314 314 316 318 316 317 319 320 320 321 323 325 324 323 323 324 321 322 321 320 320 320 319 319 319 319 319 318 318 318 320 323 323 324
301 303 304 303 303 305 304 305 307 308 308 311 311 312 313 313 313 312 313 314 314 315 317 317 316 317 320 321 321 323 323 322 323 321 320 322 323 322 322 321 321 320 320 320 319 319 318 318 320 320 319 319 322 324
303 304 304 303 303 306 305 307 309 311 312 311 313 312 313 313 312 312 312 313 314 317 318 317 320 321 320 320 321 317 315 314 320 321 322 322 322 322 322 322 321 321 321 321 320 320 321 320 318 318 320 319 318 319
305 304 303 303 304 307 308 308 310 310 311 311 311 311 312 312 313 313 312 312 314 316 317 319 317 318 319 319 318 318 318 319 320 321 322 321 321 322 321 322 321 321 321 321 320 320 319 320 317 317 317 318 316 315
303 303 303 304 305 307 309 309 310 311 310 310 309 310 311 312 312 312 313 312 312 313 316 315 316 317 318 318 318 318 318 319 321 321 319 321 321 322 321 320 320 320 320 319 315 316 317 317 316 316 315 315 316 315
304 304 304 304 305 308 309 310 308 310 311 310 310 311 312 312 312 313 313 314 315 315 315 315 315 315 315 315 316 317 317 318 321 320 320 322 318 318 318 317 315 314 314 313 312 310 313 313 312 313 313 314 315 315
306 306 306 306 307 308 309 310 311 310 310 311 311 312 312 312 314 314 314 313 314 314 314 314 314 315 316 315 314 314 317 318 319 320 321 321 315 313 311 310 310 310 310 310 311 310 309 309 309 308 310 310 310 311
307 305 307 307 308 308 310 308 310 310 311 312 312 312 313 315 316 315 313 316 317 315 316 318 318 319 320 320 319 319 318 318 318 318 316 316 319 315 313 310 310 310 308 307 307 307 307 306 305 305 307 307 307 308
306 306 307 308 310 310 309 309 312 311 312 313 313 314 313 314 314 313 315 317 316 317 317 318 318 318 318 316 314 315 315 314 316 317 318 318 311 307 308 308 307 307 308 307 306 305 305 303 305 304 305 305 306 307
306 307 310 311 311 314 312 314 313 315 314 313 313 315 315 315 316 316 318 318 319 318 320 318 316 315 312 311 311 310 308 308 309 310 311 310 311 309 308 307 307 306 305 305 305 304 304 304 303 304 304 304 305 306
308 309 310 312 310 314 316 318 317 317 318 317 318 319 318 317 319 318 319 319 321 318 315 311 311 311 311 310 309 308 306 306 307 309 308 307 308 308 308 307 306 305 304 303 303 303 302 302 303 303 303 303 304 303
313 314 313 318 318 318 319 320 320 319 318 319 319 318 318 319 318 319 319 318 317 313 311 310 310 309 309 307 307 306 304 303 304 306 305 305 306 306 307 307 306 305 302 301 301 301 301 302 302 302 302 302 302 302
320 322 319 314 315 315 319 319 318 319 320 320 320 320 318 317 319 318 314 311 309 307 307 307 307 307 306 305 303 302 302 302 303 303 304 303 302 302 302 302 302 301 300 300 300 301 301 302 302 301 301 301 301 301
319 319 322 321 318 317 319 319 318 318 317 318 318 318 319 318 314 311 308 306 305 305 305 305 304 304 304 303 302 301 300 299 300 300 300 301 301 300 299 299 299 299 299 299 299 299 299 299 299 299 298 298 298 298
321 320 319 322 320 319 320 319 317 316 316 317 318 318 312 308 306 306 305 304 305 305 305 303 302 303 302 301 300 300 299 298 298 300 300 300 300 299 298 297 298 298 297 297 296 296 295 294 295 294 295 295 295 295
322 320 321 321 320 321 321 319 317 314 312 311 311 311 311 311 309 309 308 307 307 306 305 302 300 299 300 299 299 297 297 296 296 296 298 298 296 295 295 294 294 294 294 294 294 293 293 292 293 293 293 293 293 292
322 321 321 321 321 321 319 315 313 313 313 312 310 311 311 311 309 310 308 306 304 303 302 302 301 298 297 297 296 296 296 294 293 293 292 292 292 292 292 292 292 292 292 292 292 292 291 291 291 291 291 291 290 290
321 322 322 319 321 321 318 319 317 314 312 313 313 312 313 313 313 311 306 304 304 303 300 299 298 297 295 295 294 293 292 292 291 290 289 288 288 288 289 290 290 290 290 290 290 290 290 290 290 289 289 289 289 289
319 318 318 317 317 316 320 320 320 318 316 316 316 315 314 313 313 310 303 300 300 299 298 297 296 295 294 293 292 292 291 291 290 288 287 286 285 286 287 288 288 288 289 289 289 289 289 289 289 289 289 289 289 289

GFSWCAN_925_thetae_015.txt.gz
Theta_e
300 301 301 302 302 303 303 303 303 303 304 304 303 303 305 304 304 303 304 305 304 305 304 306 307 307 306 308 309 312 312 314 316 321 322 320 321 323 325 329 332 330 335 334 336 336 337 339 339 341 345 345 345 345
301 302 302 302 302 303 303 304 302 303 303 301 302 303 303 304 303 302 303 303 302 303 305 305 306 306 306 307 308 308 310 311 314 322 325 326 331 334 330 330 330 333 333 334 337 339 343 340 341 340 341 345 345 345
301 302 301 302 303 303 302 303 303 302 301 302 302 302 303 303 302 302 303 304 303 304 306 307 308 307 307 306 305 308 310 310 313 314 316 323 330 335 340 333 334 339 334 337 344 343 340 338 338 339 341 342 345 346
301 302 302 302 302 302 301 301 301 302 302 301 301 303 303 302 302 303 303 303 303 304 306 307 307 308 308 308 307 306 308 311 311 311 316 323 327 332 336 339 346 336 339 343 346 341 339 337 336 337 337 338 340 341
301 302 302 302 301 301 301 302 302 302 302 302 302 302 301 302 302 302 302 303 303 303 307 308 307 310 309 307 308 307 308 310 310 314 317 323 325 329 333 337 331 331 336 346 347 339 341 336 332 332 332 332 332 335
301 301 301 301 301 301 302 302 302 302 301 301 301 302 302 301 301 303 307 303 303 305 307 308 310 312 313 309 311 311 311 311 312 313 318 319 320 324 334 333 328 330 332 337 339 335 330 328 326 324 325 326 326 327
301 301 301 301 301 301 301 300 300 301 301 301 300 300 300 301 303 305 306 304 303 304 305 309 312 315 315 314 313 314 313 313 314 313 319 320 320 318 327 331 328 328 332 332 329 328 328 326 326 324 325 325 323 325
301 301 301 301 301 301 301 302 302 301 301 301 301 301 301 301 302 303 303 304 304 303 304 310 313 317 314 316 316 315 315 314 315 319 318 319 320 326 327 326 325 325 327 326 326 326 327 325 324 325 323 324 325 326
301 301 301 301 301 301 301 301 302 302 303 302 303 303 304 305 306 309 305 305 303 303 306 306 311 319 316 318 315 314 313 316 318 318 316 318 322 324 325 323 322 322 323 323 323 322 322 323 321 323 324 325 322 325
301 301 301 301 301 301 301 301 301 303 304 305 306 307 309 309 307 307 307 308 307 307 307 311 314 318 317 315 315 316 316 319 318 319 321 322 322 322 322 321 322 322 321 320 321 322 322 324 324 321 323 325 325 325
301 301 301 301 301 302 303 303 303 303 307 308 309 310 308 308 310 312 312 312 313 314 314 316 318 319 316 321 320 321 322 322 324 327 326 323 319 323 322 323 322 322 321 321 322 322 320 321 323 324 324 324 325 325
301 301 301 301 302 303 304 304 304 306 307 305 305 306 308 311 313 313 315 315 317 319 318 320 319 318 317 318 323 319 321 322 325 324 325 321 321 322 322 322 323 323 322 323 321 319 319 322 323 323 324 323 324 324
301 301 301 301 302 303 304 303 303 303 306 308 310 312 312 314 317 315 319 318 319 319 320 321 321 319 321 320 322 327 321 324 323 326 323 321 321 322 323 323 322 321 320 321 321 321 321 321 320 321 323 323 324 324
301 301 301 303 303 303 305 304 304 306 309 310 312 315 313 316 316 318 318 318 319 317 318 318 319 319 320 320 323 323 324 323 324 325 326 324 322 321 322 322 321 320 320 320 319 319 319 319 320 322 323 323 323 325
301 302 304 305 303 304 305 305 308 310 310 312 312 313 315 314 316 315 315 315 316 317 318 319 318 320 320 321 321 323 324 326 323 324 324 323 321 321 320 320 321 320 319 319 319 319 319 319 320 321 322 323 324 325
302 306 306 304 303 305 306 308 311 312 313 314 314 314 314 314 314 314 316 317 317 318 318 318 319 320 322 322 323 321 322 319 319 321 322 323 321 322 322 322 321 321 320 320 319 318 318 319 320 319 319 319 320 322
304 307 305 304 304 307 309 311 312 312 313 312 312 312 312 313 314 315 316 317 317 319 319 319 321 322 319 320 321 318 317 316 319 319 321 323 323 323 322 322 322 321 322 321 319 319 320 319 318 319 320 318 318 318
305 306 305 304 305 309 311 310 312 311 311 311 312 312 313 313 315 316 316 316 318 319 319 319 318 320 321 321 321 320 320 321 322 324 325 324 323 323 321 322 320 320 320 320 319 320 319 319 318 318 317 317 318 316
304 305 304 305 306 309 311 311 312 312 311 312 312 313 313 314 315 315 316 317 317 317 317 317 318 319 319 319 320 320 321 324 325 325 324 322 321 321 321 320 320 319 318 316 317 317 317 317 316 316 315 316 316 316
307 307 307 306 308 312 312 312 311 312 312 313 313 313 313 315 315 316 315 315 315 316 316 315 316 317 318 318 318 319 322 323 325 324 323 319 317 316 316 315 316 315 315 315 313 311 314 314 313 312 312 313 314 314
310 310 308 310 311 311 313 313 314 313 313 314 314 314 315 317 316 318 319 317 318 319 320 321 322 322 321 321 320 320 321 320 321 323 322 320 317 316 314 314 313 313 313 313 313 312 311 311 309 309 309 310 310 310
310 308 311 311 313 313 315 313 314 313 313 314 316 316 317 317 318 316 317 318 318 319 319 319 322 324 323 321 320 316 315 318 319 318 317 318 318 316 315 313 313 313 312 311 310 309 308 307 307 306 307 307 308 308
309 309 313 313 316 314 315 315 316 315 317 317 317 317 318 317 317 316 318 318 319 318 320 319 316 313 313 312 311 310 311 311 312 313 312 313 313 312 311 311 310 310 310 308 307 307 307 305 306 305 306 306 306 308
308 311 315 316 318 318 318 319 318 318 318 318 319 320 320 320 320 319 318 319 319 318 316 318 313 314 314 312 312 310 308 308 309 310 309 309 311 311 310 310 309 308 307 306 306 305 305 304 304 305 305 305 305 306
314 313 320 321 320 321 320 320 320 319 320 320 320 320 320 319 319 319 318 319 319 315 313 312 312 312 311 311 309 307 305 306 307 309 307 307 307 308 309 309 308 307 306 305 304 304 304 304 304 304 304 305 304 304
318 321 320 321 321 321 320 320 320 320 320 319 319 319 320 321 319 320 318 316 312 312 312 312 311 311 310 308 308 306 304 303 304 306 306 305 305 305 306 306 306 305 303 302 302 302 302 303 303 304 304 303 303 303
321 321 323 321 320 320 321 320 320 320 319 319 320 319 319 319 319 313 309 306 308 308 308 308 307 307 307 306 305 304 303 302 302 302 302 304 304 303 302 302 302 300 300 301 301 301 301 300 300 300 300 300 300 300
322 323 323 322 322 321 322 320 318 318 319 319 319 320 319 317 314 310 309 308 308 307 306 306 306 305 305 304 303 302 301 300 300 300 301 302 301 301 299 299 298 297 298 298 297 297 297 296 296 296 297 297 297 297
323 322 323 323 321 321 321 320 319 318 317 318 320 316 311 309 309 309 308 307 307 304 306 306 304 303 303 302 301 300 299 298 298 299 299 300 299 297 296 296 296 296 296 296 295 294 294 294 294 294 295 296 295 295
321 321 322 321 322 323 321 319 318 317 315 314 312 310 310 309 309 309 310 310 308 306 306 305 304 302 300 299 299 298 297 296 295 295 295 296 295 294 294 294 294 294 294 294 294 294 293 293 294 294 293 293 293 292
320 319 320 323 322 321 318 317 316 315 314 314 313 312 311 311 311 311 307 307 306 305 304 303 301 300 298 297 297 296 296 295 294 292 291 291 291 291 292 292 292 293 293 293 293 293 293 292 292 292 292 291 291 291
319 319 319 319 320 320 319 320 317 317 316 315 314 313 312 313 313 310 305 304 304 303 301 301 299 298 296 296 295 295 293 294 293 291 289 288 289 289 290 291 291 291 291 292 292 292 292 291 291 291 291 291 290 291
318 318 317 317 317 316 319 322 321 319 317 316 316 314 314 314 312 308 305 303 302 301 300 299 298 297 296 295 294 294 293 293 291 289 288 288 287 288 289 290 290 291 291 292 291 291 291 290 290 290 290 290 290 290

GFSWCAN_925_thetae_021.txt.gz
Theta_e
301 301 302 302 301 301 302 302 301 302 302 304 305 305 305 304 304 305 304 304 305 305 305 305 305 306 307 307 307 309 311 310 311 315 315 317 317 317 325 326 330 334 330 333 332 332 333 339 337 338 339 344 346 343
301 301 301 301 301 301 302 302 302 302 302 303 304 304 304 304 304 304 304 304 304 305 305 304 304 305 305 306 308 308 310 309 312 316 318 319 320 322 327 334 327 331 333 339 335 345 341 344 345 342 348 351 352 352
301 301 301 301 301 301 301 301 301 301 302 304 304 304 304 304 304 304 304 303 304 304 303 304 306 305 305 305 305 307 307 309 311 312 315 319 322 324 327 331 333 328 333 337 339 338 339 341 340 346 344 344 343 345
301 301 301 301 301 301 301 301 302 302 302 303 304 304 304 304 303 302 303 303 303 304 305 305 305 305 306 306 307 306 306 307 310 309 312 317 321 323 327 326 330 331 331 337 339 341 339 344 344 343 342 339 339 337
301 301 301 301 301 301 301 301 301 302 302 302 303 304 303 303 302 302 303 304 303 303 306 305 304 307 308 307 307 308 307 308 310 309 315 318 319 322 324 326 330 328 334 338 342 332 334 335 336 338 337 336 334 333
301 301 301 301 301 301 301 303 303 304 304 304 303 303 304 302 301 303 305 304 305 305 306 307 306 307 309 312 313 310 310 310 309 314 316 316 318 321 324 327 325 325 328 331 336 329 328 327 324 327 327 328 330 330
300 301 301 301 301 302 302 302 302 303 305 305 305 305 304 303 303 304 305 305 305 302 306 308 307 310 313 315 310 311 310 310 316 316 316 316 318 321 325 326 327 328 331 330 329 328 330 327 326 324 327 327 327 328
300 301 301 301 301 301 301 301 302 304 304 304 304 305 305 305 304 304 304 305 303 305 305 308 308 314 314 317 315 313 313 315 315 316 316 318 319 321 327 325 326 326 329 329 327 327 328 327 327 326 325 324 324 324
301 301 301 301 301 301 303 304 304 305 305 306 307 307 307 306 307 307 307 305 304 305 307 309 310 315 314 316 317 317 315 317 316 319 317 316 321 324 324 325 324 326 326 324 323 323 322 322 322 324 326 327 326 323
301 300 300 301 301 302 305 304 304 305 307 309 309 310 312 309 309 307 308 307 305 306 305 306 306 309 314 317 319 318 318 320 318 316 316 317 320 320 322 322 321 322 323 323 324 324 322 320 320 320 320 322 326 324
300 300 300 300 302 304 305 304 305 306 310 310 311 312 308 309 309 309 310 310 309 310 308 308 311 311 316 318 320 318 320 317 314 317 319 317 320 319 320 319 319 321 321 321 322 322 322 318 319 320 320 322 325 326
300 300 301 301 303 306 306 305 306 307 308 307 306 308 309 314 316 315 315 310 308 310 315 318 319 320 319 318 318 320 319 318 323 321 319 318 319 320 320 319 318 319 319 320 321 321 322 323 323 324 324 325 325 326
301 301 301 301 305 307 306 305 307 307 309 312 311 315 316 316 318 319 320 318 318 318 319 320 322 320 320 316 319 321 321 325 322 321 316 316 317 317 320 321 320 320 320 320 322 322 322 323 324 324 325 325 325 325
303 303 302 304 308 307 306 306 309 309 311 315 316 313 319 319 318 318 319 320 319 319 320 321 320 322 321 321 320 324 324 321 322 319 318 322 322 322 321 321 321 321 321 321 321 322 323 324 324 324 325 324 325 325
303 305 304 308 308 306 306 310 311 311 315 318 317 313 318 317 317 317 318 318 319 319 323 325 323 322 323 324 321 321 320 320 319 323 322 321 321 322 322 322 322 321 319 319 321 322 321 322 323 324 324 324 324 324
303 305 309 309 307 306 309 312 313 314 317 318 316 316 317 319 319 318 319 318 317 318 319 320 322 321 321 320 319 318 319 317 318 320 320 320 321 321 322 321 321 322 322 319 319 320 323 323 322 320 322 322 324 325
305 306 309 308 308 310 313 313 316 315 314 314 315 317 319 318 319 320 319 318 318 318 318 320 322 322 320 318 317 315 316 317 318 319 319 320 320 321 321 321 323 322 321 319 322 320 320 317 317 322 320 320 318 322
307 308 309 309 308 312 316 312 316 315 314 316 317 318 317 319 319 319 319 319 318 319 319 320 319 320 322 324 324 322 319 318 318 318 320 319 320 321 322 322 322 320 319 317 319 318 316 314 313 315 314 315 316 315
307 309 310 310 308 309 316 314 315 317 316 316 317 317 319 319 320 319 319 319 318 318 319 320 320 321 320 320 321 320 320 319 320 319 320 321 321 321 322 322 320 320 318 315 313 313 311 310 309 309 310 311 313 313
312 312 312 312 311 314 316 318 315 317 317 318 318 318 319 320 320 318 317 317 317 317 317 318 318 318 318 318 319 319 319 319 319 319 321 319 317 317 319 316 316 315 313 312 310 310 309 308 307 307 309 309 309 311
314 313 315 315 316 316 316 316 316 317 316 318 318 319 321 317 318 318 318 318 318 318 318 318 316 314 313 312 311 311 313 320 318 316 318 318 317 316 317 314 313 311 310 310 310 309 307 307 306 306 308 307 307 309
315 313 315 317 318 317 318 317 318 319 320 320 320 319 320 319 318 318 318 317 318 319 318 319 318 314 312 311 310 308 309 312 311 310 309 311 312 313 312 311 312 311 309 309 308 307 307 306 305 306 307 307 307 307
314 314 317 319 320 315 318 319 321 320 321 320 320 319 322 321 320 318 318 319 318 317 316 317 317 314 314 311 308 307 306 307 309 310 309 309 309 309 311 308 306 306 307 307 306 306 305 305 305 306 306 306 307 307
314 316 320 322 322 321 323 323 323 323 323 322 323 322 323 324 323 320 318 316 314 313 313 313 312 313 312 311 310 308 306 305 305 306 306 306 309 308 306 304 303 303 303 304 304 304 304 304 303 302 303 303 304 304
316 316 319 312 324 325 324 321 320 321 321 323 323 323 319 318 321 320 317 313 313 313 313 311 311 311 311 308 307 306 303 303 303 304 304 305 306 305 305 303 301 299 300 302 301 301 301 300 299 298 299 299 299 300
314 324 319 324 324 324 325 323 324 322 322 322 323 324 320 321 318 316 314 312 311 312 311 311 310 309 307 305 305 304 302 301 300 301 300 303 301 301 301 300 299 298 298 299 298 298 298 297 297 297 297 298 298 298
322 320 323 315 318 321 323 323 322 320 320 320 323 321 321 318 316 313 312 312 312 310 309 308 307 307 305 303 302 301 299 298 298 297 298 298 297 297 297 298 298 296 297 297 297 297 296 296 296 296 297 297 296 296
320 321 324 323 323 323 322 320 319 318 317 318 320 318 317 316 314 312 312 310 309 310 310 309 307 303 301 301 300 300 299 297 296 296 295 296 296 295 296 296 296 296 296 295 296 295 294 295 295 295 295 295 294 293
324 324 322 324 321 320 320 318 317 315 314 315 317 315 313 312 311 311 311 312 311 310 307 305 302 301 300 299 299 298 298 296 296 295 294 294 295 294 294 294 294 294 294 295 294 294 294 294 294 294 294 294 293 292
324 322 323 324 319 320 319 317 316 314 313 312 312 312 312 312 311 311 308 306 305 304 303 302 301 300 300 299 298 298 296 295 293 292 292 293 293 293 293 293 294 294 294 295 295 294 293 293 293 293 293 293 292 292
320 320 322 322 320 320 318 317 315 315 315 314 313 313 313 313 312 309 307 305 304 302 302 301 301 300 299 298 297 297 296 294 293 292 291 291 292 292 292 292 292 293 293 293 293 293 293 293 293 292 292 292 292 292
320 318 319 319 322 321 321 320 318 318 316 317 316 314 314 314 314 310 307 304 303 302 300 300 300 299 298 297 296 296 296 294 292 292 291 291 291 291 291 292 292 292 292 292 293 292 292 292 292 292 292 292 292 292
319 318 318 317 321 325 323 322 321 320 318 318 316 316 315 312 309 308 305 302 302 301 300 299 299 298 297 296 296 296 295 294 293 292 292 292 291 291 291 291 291 291 291 292 292 292 292 292 292 292 292 292 292 293

GFSWCAN_925_thetae_024.txt.gz
Theta_e
301 301 301 300 301 301 301 301 300 300 302 304 305 305 305 305 304 304 304 303 304 305 303 303 303 304 304 302 307 304 307 307 306 312 315 313 314 313 319 324 329 330 333 333 330 331 329 331 336 331 332 343 339 343
301 301 301 301 301 301 301 301 301 301 302 303 304 304 304 304 304 304 303 302 303 304 302 304 304 304 304 303 303 302 307 308 309 309 309 314 317 317 319 325 326 330 331 334 332 338 330 337 341 345 347 348 349 349
300 300 301 301 301 301 301 301 301 301 302 302 304 304 304 304 304 304 304 303 303 304 303 302 302 303 303 303 303 305 304 306 308 309 307 311 313 319 322 326 329 329 331 333 333 336 334 331 330 339 340 340 339 340
300 301 301 301 301 301 302 302 303 302 302 304 305 305 305 305 304 304 304 302 303 303 304 303 303 302 303 304 303 303 304 305 307 308 306 306 311 317 321 322 328 328 330 334 334 333 333 330 328 333 336 334 334 332
300 300 301 301 301 301 302 302 301 301 301 303 304 305 305 305 304 303 301 302 303 303 305 305 303 304 305 308 304 304 304 305 305 307 309 312 315 317 321 323 329 327 332 332 337 331 328 329 328 333 331 330 329 330
300 300 301 301 301 301 301 301 302 303 303 304 305 305 305 305 304 303 303 304 305 304 305 307 302 304 305 310 309 306 305 305 306 307 311 313 315 318 321 326 324 324 325 326 333 328 327 328 326 325 327 328 328 327
301 301 301 301 300 300 301 302 304 304 304 305 305 305 305 305 305 303 303 305 304 304 304 307 306 303 310 311 309 307 307 306 309 312 314 315 316 318 323 324 323 326 331 329 329 329 329 328 328 325 324 325 326 327
301 301 301 300 300 300 301 303 305 305 305 306 306 307 307 306 306 306 305 305 303 303 305 307 307 308 313 314 314 311 309 313 313 314 314 317 317 320 323 322 325 327 327 328 328 327 327 326 325 325 325 324 324 326
300 300 300 300 300 300 302 305 306 305 307 309 309 309 307 307 306 306 306 306 304 305 307 307 310 312 311 314 315 315 314 316 315 316 317 316 320 323 324 324 324 325 325 324 323 322 322 323 323 324 325 325 324 322
300 301 301 301 300 301 302 306 306 306 309 308 310 309 308 309 308 308 307 306 305 305 304 304 305 309 309 316 316 316 317 317 318 315 314 316 319 318 320 321 323 323 322 322 322 322 321 321 321 321 322 324 325 325
302 302 302 302 302 302 306 307 305 307 309 308 304 306 307 309 309 309 309 305 305 306 303 302 305 309 312 316 314 317 316 314 314 316 317 317 320 320 319 320 320 321 321 321 321 321 319 318 320 322 323 324 325 325
302 303 303 303 304 305 308 306 306 307 308 307 306 307 308 309 313 316 313 306 304 310 312 314 314 311 315 316 315 316 313 313 321 319 317 317 318 318 318 318 318 318 320 321 321 322 323 324 322 323 324 324 324 325
302 302 303 305 305 308 308 306 307 309 310 311 309 312 311 310 315 318 317 316 318 317 317 318 321 317 317 314 316 319 320 323 320 316 314 315 317 317 318 320 320 319 320 320 321 322 323 324 323 323 323 324 324 324
303 303 304 305 308 309 307 307 309 311 312 311 312 311 314 316 317 318 320 320 319 318 320 320 320 321 319 321 322 323 319 318 320 319 323 323 322 321 320 320 321 321 322 322 322 323 322 322 323 323 323 323 324 324
303 305 306 309 309 308 308 310 312 312 313 313 311 310 314 315 316 318 319 317 317 315 318 320 320 317 319 320 317 319 319 317 316 318 322 321 320 320 320 320 319 318 317 317 318 320 320 320 320 322 323 324 324 323
305 306 309 309 309 310 311 313 314 314 315 314 314 316 316 317 318 319 319 318 317 316 315 315 319 320 320 317 318 317 318 319 321 320 319 319 320 319 319 319 319 317 317 317 316 314 315 315 314 314 315 318 320 318
306 308 308 309 310 312 313 313 315 315 311 313 314 314 315 316 316 317 316 316 315 316 318 317 321 322 318 321 322 318 319 319 318 318 317 316 318 319 318 317 318 315 316 311 310 309 308 308 308 309 309 313 314 315
307 309 310 311 310 312 314 314 313 313 316 314 313 315 314 314 315 315 314 312 314 314 316 318 318 319 321 319 320 319 319 318 318 318 317 317 317 317 319 317 314 312 310 309 307 307 306 306 307 307 308 309 310 310
310 312 312 312 311 311 312 313 313 314 314 313 312 312 313 313 312 314 313 313 311 311 311 314 315 316 316 316 318 318 318 316 317 317 317 316 316 315 313 315 313 309 308 307 306 306 305 305 305 306 306 307 307 307
314 313 313 314 314 313 314 311 314 312 314 314 313 314 313 313 312 313 313 313 312 311 311 311 313 314 310 306 306 310 313 314 309 309 310 311 313 313 313 311 309 308 307 306 305 305 304 304 305 306 306 306 305 304
316 314 315 317 316 315 312 311 312 312 313 315 313 314 314 312 313 313 313 309 312 313 313 309 307 306 307 305 305 305 305 307 305 306 306 307 307 306 307 307 306 305 305 304 303 303 303 302 304 305 305 305 305 305
314 314 315 317 317 316 314 316 313 313 314 314 314 314 315 315 313 312 310 311 312 314 314 313 310 307 305 304 304 304 304 304 305 303 304 305 305 304 303 303 303 303 303 303 303 302 302 302 302 303 303 306 306 305
314 314 317 318 317 309 313 317 318 317 318 317 316 318 318 317 314 312 311 310 311 310 310 309 309 309 308 305 303 303 302 302 301 301 301 304 303 301 300 300 301 302 301 300 301 300 298 298 298 298 298 299 300 303
315 315 317 318 317 314 318 319 318 320 320 320 318 318 317 317 315 314 313 311 310 310 308 308 308 306 306 304 300 300 300 300 299 299 300 303 301 299 298 297 297 299 298 298 299 298 297 296 296 297 297 297 298 297
312 314 316 310 317 318 322 321 321 318 319 320 319 318 314 311 318 316 313 309 308 308 307 308 307 307 302 300 299 298 298 298 297 297 298 298 298 298 297 296 296 297 297 297 297 296 295 295 296 296 297 297 297 296
316 321 318 321 318 318 319 322 320 321 320 320 320 314 313 315 314 313 310 308 307 307 307 306 305 303 299 299 296 296 296 296 296 295 296 296 295 296 295 294 294 296 296 296 296 295 295 295 295 295 294 294 294 294
316 318 316 314 316 317 319 319 319 316 317 318 319 317 316 316 314 310 307 308 309 310 310 309 304 300 299 299 297 296 295 295 294 294 295 295 294 294 294 294 294 295 295 295 295 294 294 294 294 294 294 293 293 293
317 318 321 321 321 320 320 317 316 315 313 312 314 315 314 312 311 308 307 311 311 310 308 300 300 299 298 298 297 296 295 294 293 293 293 293 294 293 293 294 294 294 294 294 294 294 294 294 294 293 293 292 292 292
319 319 321 321 322 319 318 316 315 312 310 311 313 312 310 308 309 310 310 309 303 302 302 300 299 299 298 296 295 294 294 293 292 290 290 289 291 293 292 293 293 293 293 294 293 293 293 293 293 292 292 292 292 292
324 319 320 322 319 319 316 312 312 310 309 309 308 308 309 309 311 311 308 304 302 301 301 300 299 298 297 296 294 293 293 292 291 291 289 289 291 292 292 292 292 292 292 293 292 292 292 292 292 292 292 292 292 292
321 320 322 320 319 316 314 313 313 312 310 309 309 311 311 309 311 311 304 302 300 300 299 299 298 297 296 296 295 293 292 292 292 291 291 291 291 291 291 291 291 291 292 292 292 292 292 292 292 292 292 292 292 292
317 317 317 322 320 317 316 315 313 313 314 312 312 311 311 311 312 310 304 302 300 299 299 298 297 296 296 296 295 295 295 293 292 292 292 291 291 291 291 291 291 291 291 292 292 292 292 292 292 292 292 292 293 293
317 318 317 319 321 322 320 319 320 316 315 315 316 315 314 312 307 305 302 301 300 299 299 298 297 296 295 295 295 295 294 294 293 293 292 292 292 291 291 291 291 291 291 291 292 292 292 292 292 292 292 292 292 292

GFSWCAN_925_thetae_027.txt.gz
Theta_e
300 300 300 300 301 301 301 301 301 301 302 303 304 305 305 305 304 304 303 303 303 304 303 302 303 303 303 303 304 301 303 303 303 307 309 312 312 312 313 316 319 323 326 324 321 327 326 334 336 343 339 340 336 334
300 300 300 301 301 301 301 301 301 302 302 302 303 305 305 305 304 304 304 303 302 303 303 303 303 303 302 302 302 302 303 303 304 306 308 309 312 313 313 319 316 321 324 326 325 328 329 331 334 331 332 338 342 341
300 300 300 300 301 301 301 301 301 301 301 302 304 305 305 305 304 305 303 303 303 303 303 302 302 303 302 302 303 304 303 303 304 307 308 310 313 312 316 317 316 319 322 326 331 333 334 335 332 331 334 333 332 336
300 300 300 300 301 301 300 300 301 301 302 303 304 305 305 305 306 305 305 303 303 302 304 302 303 301 303 302 302 302 303 303 307 307 308 307 311 310 313 315 318 320 323 324 330 332 332 334 330 331 332 330 332 331
300 300 300 301 301 300 300 300 300 302 303 304 305 306 306 306 305 305 305 304 303 302 305 304 303 304 304 302 302 301 302 302 304 307 309 310 310 310 309 311 320 321 324 327 330 330 330 330 328 328 331 330 329 330
300 301 301 300 300 300 300 300 301 302 305 305 306 306 306 306 306 306 302 304 303 302 304 306 301 302 304 304 306 302 302 302 304 306 308 310 309 311 314 313 315 321 324 324 330 327 328 328 327 326 329 330 329 329
300 300 300 300 300 300 300 301 302 305 306 305 307 307 307 306 306 303 304 304 304 304 303 306 306 303 305 309 307 306 303 302 304 307 310 309 310 311 309 319 318 319 325 326 327 327 328 327 328 325 326 327 327 327
300 300 300 300 300 301 301 302 304 307 306 306 308 309 309 307 306 307 306 304 304 304 304 306 306 306 311 313 313 311 306 309 309 311 312 314 315 316 316 318 324 324 326 329 329 327 327 326 325 324 324 325 325 327
303 303 303 303 302 302 303 304 307 306 306 309 308 308 307 307 306 306 306 305 304 303 304 305 309 312 308 312 313 313 313 314 312 315 316 315 314 313 319 324 324 325 326 325 324 324 323 323 322 323 323 323 323 323
301 302 302 303 303 304 304 306 308 307 309 309 308 308 308 308 309 308 307 306 305 305 301 302 304 309 308 314 316 315 315 316 317 315 314 313 318 318 319 320 322 322 322 323 323 323 322 321 320 323 324 325 324 322
302 303 303 303 304 305 305 308 307 308 309 308 304 304 307 309 309 309 308 303 302 303 299 301 301 307 309 313 313 315 314 312 313 315 317 316 315 319 319 320 320 321 321 321 320 320 319 319 321 321 322 323 324 324
304 304 304 304 305 306 309 308 308 307 308 307 306 307 307 307 311 315 314 308 305 309 310 309 309 308 311 313 314 313 311 311 318 317 316 315 312 316 319 320 321 321 321 322 322 323 324 324 324 324 324 323 324 325
305 304 305 306 306 309 308 309 309 311 310 309 307 309 307 309 318 318 316 321 321 318 316 317 320 316 314 313 315 317 320 320 317 314 313 318 318 319 320 321 321 322 322 322 323 323 323 324 324 324 324 324 324 325
305 306 307 307 309 308 310 310 312 312 312 310 310 313 316 316 319 318 320 321 318 318 317 318 318 320 318 319 320 320 318 316 318 317 321 322 320 320 320 320 320 319 320 322 322 321 322 323 323 322 322 322 322 322
306 307 308 309 309 310 311 313 313 314 313 311 313 313 315 315 314 316 315 316 316 315 315 318 317 316 316 317 316 317 318 316 316 320 321 320 319 319 319 318 315 312 310 310 310 310 311 312 316 318 317 316 319 319
307 308 308 310 311 312 312 313 313 315 312 312 313 316 314 315 315 314 312 313 314 315 313 314 318 318 320 318 319 318 316 319 321 320 319 318 319 319 316 314 310 309 307 306 306 307 307 308 310 311 311 312 311 312
308 309 311 312 313 312 313 313 313 312 313 315 316 311 311 313 313 312 311 310 311 315 317 317 320 320 316 318 319 319 321 320 318 318 316 316 317 317 314 311 310 306 305 305 306 306 306 306 306 307 307 308 309 310
310 312 312 313 313 313 314 313 312 314 316 314 314 313 310 311 312 312 311 309 308 308 313 317 314 315 316 319 318 317 316 315 314 315 313 312 311 310 309 309 307 305 304 303 303 304 304 304 304 304 305 307 308 308
312 313 313 314 313 313 313 313 312 315 312 311 311 309 309 310 310 310 310 309 307 306 306 306 310 311 311 311 311 309 309 309 311 310 307 305 307 308 307 305 304 303 302 301 301 301 303 302 302 304 305 306 305 305
314 314 315 316 314 313 311 309 311 310 312 311 310 311 310 309 308 309 310 309 307 305 307 307 310 310 308 303 302 301 302 302 302 305 305 303 304 303 302 302 302 302 302 302 302 302 303 303 304 304 303 303 302 301
314 314 316 317 316 314 309 309 310 310 310 313 311 311 312 308 310 310 309 308 310 310 311 307 304 302 302 301 301 301 300 300 298 299 301 301 302 301 301 301 301 301 300 299 298 298 298 298 299 304 304 303 302 301
313 314 315 317 315 313 311 312 311 310 312 312 312 313 312 314 311 309 306 307 310 311 309 308 305 304 300 299 299 299 299 299 299 301 300 299 299 299 299 300 299 299 298 298 297 296 296 296 297 298 298 302 300 298
314 314 316 316 316 309 313 315 316 315 318 317 313 315 314 315 311 307 308 309 310 309 308 307 306 303 299 298 298 298 298 298 297 298 299 297 296 296 296 296 297 297 297 296 296 295 295 296 297 298 298 299 298 297
314 314 315 315 315 314 315 317 314 316 316 318 315 315 314 315 315 313 310 307 305 306 304 304 303 299 297 297 294 295 296 297 296 296 296 296 295 295 295 296 296 296 296 295 295 295 295 296 296 296 296 295 294 294
311 312 312 309 313 315 318 318 317 316 317 317 317 315 311 311 316 311 309 306 305 305 304 303 300 298 295 294 294 294 295 295 294 293 294 295 295 295 295 295 295 295 296 295 294 294 295 294 294 294 295 294 294 293
313 317 315 319 316 316 315 319 318 319 316 318 316 311 310 310 312 310 307 305 305 305 306 306 298 296 294 294 292 293 294 294 294 293 293 293 294 293 292 291 291 293 294 294 294 294 294 294 293 293 293 293 293 292
313 316 313 311 313 314 316 315 314 312 313 315 314 314 312 314 312 308 305 306 307 308 304 304 300 297 295 295 294 293 294 294 293 293 293 293 293 293 292 292 292 293 294 293 294 294 293 293 293 292 292 292 292 292
314 314 318 317 318 316 318 314 313 312 311 309 311 313 313 311 308 305 305 310 307 301 299 298 298 298 296 295 295 294 293 293 293 292 292 292 292 292 292 292 292 293 293 293 293 293 293 293 292 292 292 291 291 291
316 315 317 318 319 319 316 314 312 309 307 309 311 310 309 306 306 308 309 306 301 300 298 297 296 296 295 294 293 293 292 292 291 289 289 288 289 291 291 292 292 292 292 292 292 292 292 292 292 292 291 291 292 292
320 316 317 319 318 317 315 310 310 307 306 307 306 306 306 307 310 310 307 300 300 299 299 297 296 295 294 293 292 292 292 291 291 290 288 288 290 291 291 291 291 291 292 292 292 292 292 292 292 292 292 292 292 293
316 316 319 319 317 314 312 309 309 308 307 307 306 307 307 306 309 306 301 300 299 299 298 297 296 295 294 293 292 291 291 292 292 291 291 291 291 291 291 291 291 291 292 292 292 292 292 292 292 292 292 292 292 293
316 318 318 319 316 312 311 311 310 311 310 309 310 308 308 309 309 307 300 299 299 298 297 297 296 295 295 295 295 294 294 293 292 292 292 292 291 291 291 291 291 291 291 292 292 292 292 292 292 292 292 292 292 292
313 313 313 317 316 315 314 314 314 315 312 311 311 310 310 309 309 303 301 300 300 299 298 297 296 295 295 295 295 294 294 293 293 292 292 292 291 291 291 291 291 291 290 291 291 292 292 292 292 292 292 291 291 291

GFSWCAN_925_thetae_030.txt.gz
Theta_e
300 300 300 300 300 300 300 301 301 300 300 301 304 305 305 305 305 304 303 303 303 303 303 303 303 303 303 303 303 301 301 301 303 306 307 306 310 310 310 308 311 311 314 314 314 319 319 327 331 340 334 334 336 336
300 300 300 300 300 300 301 301 300 300 300 301 303 305 306 305 305 305 304 303 303 303 303 302 302 302 302 302 302 302 304 301 306 305 306 307 309 310 309 312 311 314 316 319 314 315 317 329 331 330 330 335 335 334
300 300 300 300 300 300 300 300 300 300 300 302 304 306 306 306 305 306 305 304 302 303 300 299 301 302 302 302 302 303 303 302 304 301 303 306 311 310 308 311 314 313 313 317 320 321 325 329 329 329 331 332 331 332
300 300 300 300 300 300 300 300 300 300 301 303 305 306 306 306 306 306 307 305 302 302 302 300 302 301 303 302 302 302 302 301 303 306 307 308 309 308 309 310 311 311 311 314 318 320 329 330 327 327 331 330 330 330
300 300 300 300 300 300 300 301 301 302 303 305 306 306 307 307 307 306 306 306 305 301 303 303 302 303 302 302 301 301 302 301 302 306 308 310 309 309 309 309 310 309 310 313 316 319 326 328 326 326 331 331 331 331
300 300 301 302 302 302 302 302 302 303 305 307 306 307 307 307 307 306 303 302 303 303 303 306 301 303 304 302 300 300 300 301 302 305 306 308 309 307 309 312 311 312 312 315 318 321 325 326 327 327 330 329 328 330
303 303 303 302 302 302 303 303 304 304 307 307 307 308 307 308 307 304 304 305 303 303 303 305 306 303 304 304 304 302 301 302 303 305 307 307 307 309 306 311 310 311 310 314 320 323 329 327 328 325 326 329 330 329
301 302 302 302 302 302 303 304 305 307 307 308 307 308 308 308 307 306 306 305 304 302 302 306 307 305 308 309 309 304 303 303 307 307 311 311 311 309 309 309 310 312 309 313 321 325 326 325 324 324 324 325 328 329
302 302 303 303 303 303 304 305 307 308 308 308 308 307 307 306 307 306 306 305 303 301 303 304 307 309 305 309 310 311 312 314 311 313 314 312 310 310 312 317 321 319 314 314 325 325 324 326 325 325 325 324 324 324
303 304 304 304 304 305 306 307 308 309 309 309 308 306 307 307 308 305 306 305 304 303 300 302 303 308 307 313 315 315 314 315 315 314 313 312 312 314 317 319 320 323 324 322 324 325 325 325 325 325 325 325 324 323
305 305 305 305 306 306 307 308 309 308 309 309 303 303 307 308 309 309 306 304 301 303 299 301 303 307 308 312 314 313 313 310 312 314 315 313 315 317 319 321 322 323 322 321 321 322 321 322 323 324 324 324 324 324
306 305 306 307 307 308 309 310 309 308 308 307 306 306 307 307 312 314 313 308 307 310 306 307 308 305 308 312 313 312 309 309 316 315 314 314 320 319 320 320 322 323 323 324 324 324 324 324 324 324 323 323 323 324
305 307 307 307 309 310 311 311 312 312 310 309 306 308 311 312 316 318 317 317 321 319 316 315 319 315 312 313 314 317 319 319 316 314 312 319 320 318 315 315 314 314 315 321 324 323 322 321 320 322 323 324 325 324
307 308 308 310 311 312 312 312 313 313 313 307 311 311 315 317 317 317 316 316 316 317 316 316 317 318 317 315 316 320 317 315 318 316 320 318 316 314 312 311 310 310 311 313 315 317 318 315 314 314 317 320 322 322
309 308 310 311 312 312 312 313 313 314 312 310 311 312 314 314 313 313 313 313 312 314 313 315 314 313 315 317 317 315 317 315 315 321 318 316 315 313 311 310 308 308 308 307 309 310 314 314 312 311 311 312 313 312
309 310 312 313 312 312 313 313 313 313 311 313 312 313 313 312 312 311 309 308 308 312 313 314 317 316 318 318 319 320 315 317 320 319 317 316 316 312 309 307 306 305 305 306 306 306 307 307 309 309 309 309 308 307
311 312 313 314 312 313 313 313 313 311 312 314 313 308 309 308 309 309 308 307 305 311 315 315 316 318 316 317 316 314 316 315 314 312 309 310 309 308 306 304 303 303 303 303 303 304 304 306 307 307 308 307 306 305
311 312 314 315 313 313 314 313 312 313 314 310 311 310 308 307 308 309 308 307 304 305 309 311 308 311 314 314 311 309 309 309 310 307 304 304 305 304 303 301 301 301 301 301 302 303 302 303 303 304 304 304 304 303
311 313 314 315 313 313 311 311 311 312 312 309 308 307 307 307 307 307 307 308 306 302 303 304 307 309 308 307 307 304 304 303 305 306 302 300 300 300 300 301 300 300 299 299 300 301 302 302 301 301 302 302 301 301
313 314 314 316 314 312 310 309 310 310 312 310 308 309 307 307 305 306 307 307 305 305 304 305 306 305 306 301 299 298 298 298 300 303 301 300 299 299 298 299 298 298 298 297 297 297 298 299 301 301 300 299 299 298
313 314 316 316 316 313 308 308 309 308 308 310 308 308 309 306 307 306 306 303 306 306 306 306 304 301 299 298 297 296 297 297 296 297 299 298 298 299 298 298 297 297 296 295 295 295 295 295 297 300 299 297 296 296
313 314 316 316 315 312 310 310 310 308 311 311 310 310 313 313 309 307 303 309 311 309 306 304 302 299 297 296 296 296 297 298 297 296 296 295 295 295 295 296 296 295 295 294 294 294 295 295 298 299 297 296 295 294
314 314 316 315 315 308 311 313 314 312 315 313 310 313 312 315 313 305 305 304 306 305 304 303 301 297 295 296 297 296 296 296 294 294 295 294 294 294 295 295 295 294 294 293 294 295 295 296 297 296 294 294 293 293
315 313 313 314 313 312 313 314 312 314 314 314 312 314 312 313 313 306 308 305 303 303 302 301 298 295 295 294 292 292 294 294 294 294 294 294 293 293 293 293 294 294 293 293 294 294 295 295 294 294 293 293 292 292
310 313 311 307 311 313 316 315 315 314 315 314 315 313 310 310 313 308 308 305 304 304 303 300 297 294 293 292 292 292 293 294 292 291 292 292 293 293 293 293 293 294 294 294 294 293 293 294 294 294 294 293 292 291
311 315 314 317 314 315 314 316 316 316 314 317 314 310 308 309 310 309 306 304 304 304 304 303 297 293 292 292 291 292 293 293 293 292 291 292 292 291 290 290 290 293 293 293 293 293 293 292 292 292 292 292 291 291
312 315 311 309 311 312 313 312 311 309 312 314 312 312 311 312 310 306 303 303 303 308 305 303 301 296 294 293 293 293 293 292 292 291 291 291 291 291 291 290 290 291 292 293 293 293 293 292 291 291 291 291 291 291
313 312 317 315 316 313 315 312 311 310 309 307 309 311 312 310 307 303 303 307 305 303 298 298 298 297 295 294 293 293 293 292 291 291 291 291 291 291 291 291 291 292 292 292 292 292 292 292 291 291 291 290 291 292
314 312 314 316 317 317 317 313 310 307 305 308 310 308 307 304 304 306 308 306 302 298 297 296 295 295 294 294 293 292 292 292 291 289 289 289 289 291 291 291 291 292 292 292 292 292 292 291 291 291 291 292 292 293
317 313 315 316 317 315 314 309 309 306 304 306 305 305 306 306 308 308 309 301 299 297 297 297 296 294 293 293 292 292 292 291 291 290 289 289 290 290 290 290 291 291 292 292 291 291 291 291 291 292 292 292 292 293
314 315 316 316 317 313 312 308 307 307 306 307 306 306 307 306 308 308 305 301 299 298 297 295 295 295 294 293 292 291 291 292 292 291 291 291 290 290 290 290 291 291 291 291 291 291 291 291 291 292 292 291 291 291
315 317 317 318 315 310 309 309 309 310 309 309 309 308 308 308 309 306 300 298 298 297 297 296 295 295 295 295 295 294 293 293 292 292 292 291 291 291 290 290 290 291 291 291 291 291 291 291 291 291 291 291 291 291
311 311 312 315 313 313 311 311 311 312 310 309 309 309 311 310 310 306 301 298 299 299 298 298 297 296 296 295 294 294 294 293 293 292 292 292 291 291 291 291 291 291 291 291 291 291 291 291 291 291 291 291 290 291

GFSWCAN_925_thetae_033.txt.gz
Theta_e
300 300 300 300 300 300 300 300 300 300 300 300 301 304 306 306 306 305 305 303 303 304 303 303 303 304 303 303 305 303 304 305 306 307 308 307 309 309 312 309 308 311 314 314 312 313 312 316 318 322 335 337 336 338
300 300 300 300 300 300 300 300 300 300 301 302 304 306 307 307 306 307 307 305 303 303 304 303 302 302 302 303 303 303 304 305 306 308 307 307 311 311 311 312 311 313 312 315 314 311 314 317 322 323 330 333 335 339
300 300 300 299 299 300 300 301 302 302 302 303 305 307 307 307 307 308 307 305 302 303 303 302 303 302 302 302 302 303 303 303 304 305 306 308 308 308 310 311 312 311 314 316 315 313 316 315 318 320 332 335 337 337
299 299 300 302 302 303 302 302 302 302 303 303 305 307 307 307 307 308 307 306 303 302 304 304 302 302 302 302 302 302 303 303 304 305 305 307 311 310 310 310 312 311 312 313 314 314 315 316 317 322 326 330 334 335
303 303 302 302 302 302 302 302 303 303 304 304 306 306 307 307 308 308 307 306 306 303 306 304 304 303 302 302 302 302 302 303 304 305 307 310 308 308 309 310 310 310 312 314 313 313 317 319 319 323 331 331 335 333
302 301 301 302 302 303 303 304 304 304 305 307 307 307 307 307 308 306 305 303 303 303 304 305 304 304 304 301 302 303 303 303 303 304 305 307 306 307 311 313 310 310 311 312 313 312 314 317 319 323 330 334 332 331
301 302 302 302 303 304 305 305 305 305 308 307 307 307 308 307 308 305 305 305 303 303 304 305 305 306 305 304 303 302 302 303 303 304 305 306 307 308 306 310 309 310 311 312 313 313 315 315 320 327 330 332 329 331
302 302 304 305 305 305 305 306 306 307 307 308 307 307 308 307 307 306 306 305 303 302 302 306 306 307 307 311 313 305 305 303 304 304 306 307 308 306 307 308 309 310 312 310 311 311 313 317 327 329 327 329 332 335
304 306 306 305 305 306 306 306 308 308 308 307 307 307 307 307 307 306 306 304 302 302 305 305 309 311 307 311 314 312 305 309 307 306 310 311 307 309 310 311 313 319 314 312 311 312 314 322 326 327 328 329 333 335
308 306 305 306 307 306 307 309 309 308 308 308 307 307 311 307 306 305 305 304 303 303 301 303 304 308 307 311 314 314 314 312 312 311 312 308 308 312 316 322 324 319 317 317 319 325 325 324 327 329 328 327 327 328
307 306 307 307 307 309 310 311 309 308 310 308 308 309 307 307 308 310 306 306 303 304 300 301 303 306 308 311 314 311 312 308 313 314 313 310 312 314 313 315 321 324 324 324 324 324 324 325 326 328 330 329 329 329
306 307 307 308 310 311 311 310 311 310 308 307 307 307 307 310 313 316 315 310 309 314 309 308 309 304 307 310 313 313 313 312 319 315 314 313 315 313 312 313 313 316 319 319 318 320 322 325 325 326 326 326 326 326
308 308 308 311 311 312 311 312 312 311 310 308 308 313 314 315 314 316 315 316 318 319 318 317 320 314 313 314 315 318 320 319 317 315 312 314 314 313 312 313 312 311 311 313 317 315 314 315 316 321 324 324 324 323
308 309 311 312 313 312 312 313 313 313 311 313 315 314 317 316 314 313 314 314 314 317 315 318 319 318 317 318 318 319 318 315 319 317 315 312 314 313 310 310 313 312 311 311 311 311 312 312 311 310 311 313 316 315
310 310 312 313 313 313 313 313 314 313 313 316 315 315 316 314 313 312 312 311 311 311 316 319 319 317 319 319 318 316 319 317 315 318 318 316 315 310 308 308 308 309 309 311 311 310 310 310 309 308 307 308 310 310
311 312 313 314 312 313 313 313 314 314 314 317 315 315 314 312 312 311 311 310 309 311 317 317 318 318 318 317 317 316 316 316 315 313 311 311 310 308 306 306 306 306 307 307 307 308 308 308 308 307 306 307 307 308
311 313 314 314 312 313 313 313 314 315 316 315 315 312 313 313 312 310 309 310 309 312 316 315 313 316 314 314 314 310 310 309 310 309 307 306 306 306 306 305 304 305 306 307 306 306 307 306 307 307 308 305 306 306
311 313 314 315 313 312 313 313 315 315 315 314 314 312 311 311 311 310 310 310 308 311 310 311 309 310 311 309 309 309 308 308 309 307 304 305 305 304 303 304 303 303 303 304 305 305 305 306 306 306 305 305 305 305
311 313 315 316 313 313 314 313 313 316 315 314 313 312 311 311 311 310 311 310 308 307 308 308 306 306 306 307 307 307 306 305 307 306 304 302 302 302 302 302 301 301 300 300 301 303 303 303 303 303 304 304 303 303
313 314 315 316 314 312 314 315 310 316 317 314 313 312 312 312 311 311 310 310 309 307 307 306 306 306 305 304 304 304 303 303 304 306 304 303 301 301 300 299 299 300 300 300 300 299 301 303 302 301 300 300 301 300
313 314 316 317 315 312 313 314 315 314 314 316 313 312 314 312 313 311 311 310 309 309 307 307 304 303 302 301 300 300 300 300 301 302 302 302 300 300 300 299 299 298 298 298 298 299 299 300 300 300 299 298 298 297
313 314 316 317 315 314 316 312 316 314 316 316 316 316 318 316 314 312 310 310 310 311 310 308 305 302 302 302 299 298 298 300 299 298 297 298 299 299 299 298 298 298 297 296 297 298 298 299 299 298 297 296 295 295
314 314 316 316 318 314 316 314 319 318 320 319 316 318 318 319 315 309 311 311 311 309 307 304 303 300 299 298 299 298 297 297 298 297 297 297 297 297 297 297 296 297 296 296 296 297 298 297 296 297 296 296 296 295
314 315 318 318 316 315 317 319 317 319 320 320 318 317 317 318 316 313 312 311 310 308 306 304 300 300 299 299 298 297 296 295 297 296 295 296 297 296 295 295 296 295 295 295 296 296 296 296 295 295 295 294 294 294
314 316 315 311 316 318 319 319 319 319 320 319 319 318 317 314 316 313 312 310 310 311 310 305 301 300 300 299 297 296 294 294 295 296 294 294 295 295 295 295 295 294 294 295 295 295 295 294 294 294 294 294 293 293
313 317 318 319 318 320 319 320 320 319 317 320 318 315 314 315 313 312 311 310 310 310 310 309 306 302 299 297 297 296 295 293 294 294 293 292 293 294 294 295 295 295 293 293 294 295 294 294 294 293 293 293 292 292
315 319 317 314 317 317 319 317 316 314 315 317 317 317 314 312 311 310 310 309 310 309 307 302 303 301 299 296 294 293 292 292 292 292 292 291 291 291 292 292 293 292 292 293 294 294 294 293 293 293 292 292 292 292
318 319 321 321 321 319 320 316 315 313 313 313 314 313 312 310 308 309 309 308 307 304 298 297 297 297 296 295 294 294 293 292 291 291 291 292 292 291 291 291 292 291 292 292 293 293 293 293 292 292 292 293 293 293
320 318 319 320 320 321 322 318 315 313 312 314 315 312 312 311 310 309 308 308 305 299 298 298 296 295 294 293 293 293 293 293 294 294 293 293 293 292 291 291 292 292 292 292 292 292 292 292 292 292 293 293 293 294
322 318 320 319 321 320 320 317 316 312 310 312 311 311 311 310 309 308 307 303 301 301 300 298 297 296 296 296 296 294 293 292 292 293 294 293 292 291 291 291 291 292 291 292 292 292 291 292 292 293 293 293 293 294
319 319 320 320 321 320 317 312 310 311 311 312 311 312 314 312 309 308 307 304 301 299 298 297 297 296 296 296 296 296 295 294 292 292 292 291 291 291 291 291 291 291 292 292 292 292 293 293 293 293 293 292 292 293
320 322 323 322 321 315 312 314 314 314 313 313 314 312 312 313 315 312 302 298 298 299 298 298 298 298 296 295 295 294 294 293 293 293 292 292 292 291 291 291 291 291 292 292 292 292 292 292 292 292 292 292 292 292
318 319 319 319 319 317 315 316 315 316 314 314 314 313 314 314 315 310 302 298 299 300 299 298 297 296 295 295 295 294 294 294 293 292 292 291 291 291 291 291 291 291 292 292 292 292 292 292 292 292 292 292 292 292

GFSWCAN_925_thetae_036.txt.gz
Theta_e
300 300 300 300 300 299 299 301 302 302 302 302 303 306 307 307 307 308 307 306 303 304 304 305 305 305 305 305 306 305 306 307 308 309 309 308 308 309 310 310 310 313 313 313 314 315 316 316 317 321 326 326 332 333
299 299 299 299 301 303 303 302 302 302 302 303 306 307 306 307 307 308 308 306 305 303 304 305 305 305 304 304 306 305 305 305 307 310 310 310 311 311 312 312 311 313 312 313 313 313 314 316 317 320 320 322 324 329
300 301 303 303 302 302 301 302 303 303 303 304 307 306 306 307 307 308 308 304 302 304 304 305 308 306 305 305 304 305 304 304 305 306 307 308 310 309 310 310 310 311 312 314 314 313 314 315 315 317 317 319 323 325
303 303 302 302 302 302 302 303 303 304 304 306 308 307 307 307 308 308 308 306 303 303 305 308 304 305 305 304 304 304 304 304 304 306 308 309 310 309 312 312 312 312 313 314 315 315 315 314 314 315 317 317 317 320
302 302 301 302 302 303 304 304 304 305 305 306 308 307 307 308 308 308 308 306 306 305 308 308 306 307 306 305 304 304 304 304 304 307 307 309 308 308 308 310 313 311 313 314 315 314 315 316 315 315 315 314 321 323
302 302 301 303 304 306 305 305 306 306 306 308 307 307 307 308 308 306 308 304 304 304 306 309 307 307 306 304 304 305 305 305 306 306 306 306 306 307 311 312 311 311 311 312 314 313 314 315 315 316 318 320 322 324
302 302 304 307 306 305 306 306 306 307 308 307 307 308 309 308 308 309 309 306 304 304 305 308 309 308 307 307 304 305 304 305 304 302 303 305 306 306 307 309 308 309 311 311 311 312 315 314 315 315 317 319 322 323
302 305 308 306 306 306 306 307 309 308 308 307 307 308 308 307 307 308 306 305 303 303 304 308 310 311 309 311 313 305 305 303 302 301 302 304 304 304 308 308 309 310 311 310 310 311 311 313 315 317 318 322 327 330
305 308 307 307 307 307 309 310 309 308 307 307 307 308 309 309 309 308 305 303 302 303 306 306 310 314 309 311 313 309 306 307 305 305 304 308 306 310 306 311 319 323 320 315 315 311 310 312 314 315 317 327 330 330
309 307 307 307 308 310 311 310 309 308 308 308 309 312 315 308 306 305 304 305 304 303 302 304 304 308 307 311 313 314 312 311 314 312 312 309 310 311 311 315 316 319 318 314 315 314 314 316 317 319 325 328 327 330
308 308 308 309 311 311 311 311 311 310 310 312 315 315 309 308 306 310 310 308 307 308 304 304 305 308 308 312 313 311 313 311 317 320 318 315 313 313 311 313 315 315 315 316 319 320 322 321 323 325 327 327 328 326
308 309 309 312 312 312 312 312 312 313 313 311 311 308 310 313 317 317 316 314 314 320 318 312 313 308 309 309 315 318 320 319 322 318 316 314 313 313 312 311 313 315 314 314 314 314 315 317 322 324 326 324 323 322
309 309 311 313 313 313 312 313 313 312 310 309 312 317 317 315 316 316 317 316 318 319 319 318 322 318 317 316 319 321 322 322 318 318 313 313 315 314 312 311 311 312 314 314 314 313 313 313 312 314 317 318 318 319
310 310 312 313 313 313 312 313 313 312 315 317 316 315 318 318 318 316 317 317 315 316 317 320 321 321 321 320 318 320 318 317 320 317 315 314 314 313 311 312 312 312 312 312 311 311 311 311 311 310 311 312 314 316
311 311 313 313 313 313 313 312 313 316 315 317 316 319 317 315 315 314 314 315 315 315 319 321 321 318 319 319 318 316 319 320 317 316 314 311 311 311 310 311 311 312 312 312 312 312 312 310 310 310 310 311 312 310
311 313 314 314 312 313 313 314 316 316 315 315 315 315 315 315 314 313 313 314 314 316 320 318 319 319 316 315 314 314 316 315 313 312 310 308 308 311 310 310 311 310 311 311 311 311 310 310 310 310 310 310 310 310
312 315 314 315 312 313 313 316 315 316 316 316 315 314 314 315 314 314 313 312 312 314 316 316 315 315 313 312 313 313 314 313 314 311 308 309 309 309 309 308 308 308 309 309 308 309 309 309 309 310 311 310 308 308
313 313 314 316 312 314 316 316 315 315 316 315 316 315 315 315 315 314 313 312 312 313 313 311 310 311 311 310 310 308 310 310 311 311 308 308 308 307 307 307 305 305 305 306 306 307 307 307 308 308 308 307 308 307
312 313 315 316 313 316 317 317 316 316 315 315 315 315 315 315 314 312 312 311 310 310 310 310 310 310 309 308 307 306 306 307 309 310 308 306 304 305 305 305 304 304 303 303 302 304 305 305 305 305 306 306 305 304
312 313 315 316 313 317 318 319 316 318 318 316 315 315 316 315 313 312 311 311 309 309 309 308 308 308 307 306 305 305 304 304 306 308 308 306 304 304 303 303 303 302 302 301 301 299 302 304 304 303 302 302 303 302
314 315 315 318 319 318 319 319 319 319 318 318 318 315 318 317 316 312 311 310 310 309 308 307 307 306 305 305 303 302 302 302 303 303 304 304 303 302 302 302 302 301 300 300 300 301 301 302 302 301 301 301 301 300
316 314 319 320 320 319 321 319 321 320 321 320 320 319 318 317 315 313 311 310 310 310 309 308 307 306 305 305 303 302 301 301 300 300 300 301 302 302 301 300 300 300 299 299 299 300 300 300 300 301 300 300 299 297
315 316 320 321 322 320 322 320 324 323 323 322 320 320 318 319 317 313 311 310 311 310 309 308 306 304 304 302 302 301 300 300 300 300 299 299 300 299 299 299 299 298 299 298 298 299 298 297 297 298 298 298 298 298
315 320 322 322 321 319 321 323 322 323 323 322 321 320 319 319 318 314 311 309 309 310 309 309 307 306 305 304 303 301 300 299 299 299 298 298 298 298 298 298 298 298 297 298 297 297 297 297 296 297 297 296 296 296
320 321 321 316 321 322 321 321 322 319 319 321 320 319 319 318 316 314 311 309 308 308 309 308 306 305 305 304 302 301 299 298 298 298 298 296 297 297 297 297 297 297 296 297 297 297 297 296 296 296 296 295 295 295
320 322 323 322 323 322 320 318 317 316 317 319 319 320 318 316 314 311 309 308 308 308 308 307 306 304 304 302 301 300 298 297 297 297 297 295 295 296 296 297 297 297 295 296 296 297 296 296 296 295 295 295 293 295
322 322 323 321 323 322 322 319 318 315 315 315 317 318 316 312 310 310 310 309 309 308 307 305 304 303 302 301 299 298 297 296 296 295 295 294 294 294 294 294 295 295 294 295 296 296 296 295 295 295 295 295 295 295
321 323 323 324 324 322 322 320 318 316 315 315 316 316 314 312 313 311 310 309 309 309 304 302 302 301 301 300 298 298 297 296 296 295 295 295 295 294 294 294 294 292 293 294 294 295 295 295 295 295 295 295 295 295
324 322 322 323 323 323 323 322 320 318 317 316 318 317 316 315 313 311 310 309 309 307 304 302 301 300 300 299 298 297 297 297 297 297 297 297 296 295 294 294 294 294 294 294 293 292 293 293 293 294 294 294 294 295
325 322 323 323 323 322 322 321 321 319 316 317 316 315 315 315 314 312 311 308 308 307 304 303 301 301 301 300 300 299 297 296 296 296 297 297 295 294 294 294 294 294 294 294 294 294 292 293 294 294 294 294 294 294
323 323 324 324 322 323 322 320 317 317 316 316 316 316 317 317 314 312 311 310 309 304 301 302 302 301 301 300 299 298 298 297 296 295 295 295 295 295 294 294 294 294 294 294 294 294 294 294 294 294 293 293 293 293
325 326 325 324 322 322 319 320 320 319 318 318 318 316 316 317 318 315 306 305 305 303 301 303 303 301 300 299 298 297 295 296 296 296 295 295 295 294 294 294 293 293 293 293 293 293 293 293 293 293 293 293 293 293
322 322 323 322 322 322 320 320 320 320 319 319 319 318 318 318 318 312 303 302 303 303 303 302 301 300 299 298 297 297 296 296 295 293 293 292 292 292 293 294 293 293 293 293 293 293 293 293 293 293 293 293 293 293